Time,TemperatureF,DewpointF,PressureIn,WindDirection,WindDirectionDegrees,WindSpeedMPH,WindSpeedGustMPH,Humidity,HourlyPrecipIn,Conditions,Clouds,dailyrainin,SoftwareType,DateUTC
2013-02-23 00:01:00,43.0,37.8,30.13,NNW,337,4.0,12.1,82,0.00,,,0.00,WUHU21623XXSP,2013-02-23 08:01:00,
2013-02-23 00:06:00,43.0,37.5,30.13,NW,315,6.0,12.1,81,0.00,,,0.00,WUHU21623XXSP,2013-02-23 08:06:00,
2013-02-23 00:11:00,43.0,37.2,30.13,SW,225,4.9,6.0,80,0.00,,,0.00,WUHU21623XXSP,2013-02-23 08:11:00,
2013-02-23 00:12:00,43.0,37.2,30.13,NW,315,0.0,6.0,80,0.00,,,0.00,WUHU21623XXSP,2013-02-23 08:12:00,
2013-02-23 00:16:00,43.0,37.2,30.13,WNW,292,4.7,5.1,80,0.00,,,0.00,WUHU21623XXSP,2013-02-23 08:16:00,
2013-02-23 00:17:00,43.0,37.2,30.13,NW,315,0.9,5.1,80,0.00,,,0.00,WUHU21623XXSP,2013-02-23 08:17:00,
2013-02-23 00:21:00,43.0,37.2,30.13,WSW,247,4.3,5.8,80,0.00,,,0.00,WUHU21623XXSP,2013-02-23 08:21:00,
2013-02-23 00:22:00,43.0,37.2,30.13,West,270,0.0,5.8,80,0.00,,,0.00,WUHU21623XXSP,2013-02-23 08:22:00,
2013-02-23 00:27:00,43.0,36.9,30.13,NW,315,2.7,5.8,79,0.00,,,0.00,WUHU21623XXSP,2013-02-23 08:27:00,
2013-02-23 00:32:00,43.0,36.9,30.13,West,270,2.5,11.0,79,0.00,,,0.00,WUHU21623XXSP,2013-02-23 08:32:00,
2013-02-23 00:37:00,43.2,37.4,30.13,NE,45,0.0,11.0,80,0.00,,,0.00,WUHU21623XXSP,2013-02-23 08:37:00,
2013-02-23 00:38:00,43.2,37.4,30.13,NW,315,0.0,11.0,80,0.00,,,0.00,WUHU21623XXSP,2013-02-23 08:38:00,
2013-02-23 00:42:00,43.2,37.4,30.13,ENE,67,0.0,8.9,80,0.00,,,0.00,WUHU21623XXSP,2013-02-23 08:42:00,
2013-02-23 00:43:00,43.2,37.4,30.13,West,270,0.0,8.9,80,0.00,,,0.00,WUHU21623XXSP,2013-02-23 08:43:00,
2013-02-23 00:47:00,43.2,37.7,30.13,North,0,0.0,8.9,81,0.00,,,0.00,WUHU21623XXSP,2013-02-23 08:47:00,
2013-02-23 00:48:00,43.2,37.7,30.13,West,270,6.0,8.9,81,0.00,,,0.00,WUHU21623XXSP,2013-02-23 08:48:00,
2013-02-23 00:52:00,43.2,37.4,30.13,NW,315,3.8,10.5,80,0.00,,,0.00,WUHU21623XXSP,2013-02-23 08:52:00,
2013-02-23 00:53:00,43.2,37.4,30.13,West,270,0.0,10.5,80,0.00,,,0.00,WUHU21623XXSP,2013-02-23 08:53:00,
2013-02-23 00:58:00,43.2,37.4,30.13,West,270,2.2,10.5,80,0.00,,,0.00,WUHU21623XXSP,2013-02-23 08:58:00,
2013-02-23 01:03:00,43.2,37.1,30.13,WNW,292,0.0,8.5,79,0.00,,,0.00,WUHU21623XXSP,2013-02-23 09:03:00,
2013-02-23 01:04:00,43.2,37.1,30.13,NNW,337,0.0,8.5,79,0.00,,,0.00,WUHU21623XXSP,2013-02-23 09:04:00,
2013-02-23 01:08:00,43.0,36.9,30.13,WNW,292,1.3,7.6,79,0.00,,,0.00,WUHU21623XXSP,2013-02-23 09:08:00,
2013-02-23 01:09:00,43.0,36.9,30.14,West,270,0.0,5.6,79,0.00,,,0.00,WUHU21623XXSP,2013-02-23 09:09:00,
2013-02-23 01:13:00,43.0,36.9,30.14,NW,315,3.8,6.9,79,0.00,,,0.00,WUHU21623XXSP,2013-02-23 09:13:00,
2013-02-23 01:14:00,43.0,36.9,30.14,SSW,202,0.0,6.9,79,0.00,,,0.00,WUHU21623XXSP,2013-02-23 09:14:00,
2013-02-23 01:18:00,43.0,36.6,30.14,WNW,292,2.0,11.0,78,0.00,,,0.00,WUHU21623XXSP,2013-02-23 09:18:00,
2013-02-23 01:19:00,43.0,36.6,30.14,North,0,0.0,11.0,78,0.00,,,0.00,WUHU21623XXSP,2013-02-23 09:19:00,
2013-02-23 01:23:00,43.0,36.6,30.14,WSW,247,0.0,11.0,78,0.00,,,0.00,WUHU21623XXSP,2013-02-23 09:23:00,
2013-02-23 01:24:00,43.0,36.6,30.14,WSW,247,0.0,11.0,78,0.00,,,0.00,WUHU21623XXSP,2013-02-23 09:24:00,
2013-02-23 01:28:00,43.0,36.6,30.15,West,270,3.8,5.1,78,0.00,,,0.00,WUHU21623XXSP,2013-02-23 09:28:00,
2013-02-23 01:29:00,43.0,36.6,30.15,SE,135,4.0,5.1,78,0.00,,,0.00,WUHU21623XXSP,2013-02-23 09:29:00,
2013-02-23 01:30:00,43.0,36.6,30.15,WNW,292,0.0,5.1,78,0.00,,,0.00,WUHU21623XXSP,2013-02-23 09:30:00,
2013-02-23 01:33:00,43.0,36.9,30.15,NW,315,2.9,9.4,79,0.00,,,0.00,WUHU21623XXSP,2013-02-23 09:33:00,
2013-02-23 01:34:00,42.8,36.7,30.16,WNW,292,8.3,12.1,79,0.00,,,0.00,WUHU21623XXSP,2013-02-23 09:34:00,
2013-02-23 01:35:00,42.6,36.5,30.16,NNW,337,6.9,12.1,79,0.00,,,0.00,WUHU21623XXSP,2013-02-23 09:35:00,
2013-02-23 01:38:00,42.6,36.5,30.16,NW,315,3.6,13.6,79,0.00,,,0.00,WUHU21623XXSP,2013-02-23 09:38:00,
2013-02-23 01:39:00,42.4,36.4,30.16,NNE,22,0.0,13.6,79,0.00,,,0.00,WUHU21623XXSP,2013-02-23 09:39:00,
2013-02-23 01:40:00,42.4,36.4,30.16,NNW,337,0.0,13.6,79,0.00,,,0.00,WUHU21623XXSP,2013-02-23 09:40:00,
2013-02-23 01:43:00,42.1,36.0,30.16,North,0,0.0,13.6,79,0.00,,,0.00,WUHU21623XXSP,2013-02-23 09:43:00,
2013-02-23 01:44:00,42.1,36.0,30.16,North,0,0.0,13.6,79,0.00,,,0.00,WUHU21623XXSP,2013-02-23 09:44:00,
2013-02-23 01:45:00,41.9,35.8,30.16,NE,45,0.0,13.6,79,0.00,,,0.00,WUHU21623XXSP,2013-02-23 09:45:00,
2013-02-23 01:48:00,41.5,35.8,30.16,NE,45,0.0,3.6,80,0.00,,,0.00,WUHU21623XXSP,2013-02-23 09:48:00,
2013-02-23 01:49:00,41.5,35.8,30.16,NE,45,0.0,3.6,80,0.00,,,0.00,WUHU21623XXSP,2013-02-23 09:49:00,
2013-02-23 01:50:00,41.5,35.8,30.16,NE,45,0.0,1.6,80,0.00,,,0.00,WUHU21623XXSP,2013-02-23 09:50:00,
2013-02-23 01:53:00,41.4,35.6,30.16,ESE,112,0.0,0.0,80,0.00,,,0.00,WUHU21623XXSP,2013-02-23 09:53:00,
2013-02-23 01:54:00,41.2,35.4,30.15,ESE,112,0.0,0.0,80,0.00,,,0.00,WUHU21623XXSP,2013-02-23 09:54:00,
2013-02-23 01:55:00,41.2,35.4,30.15,ESE,112,0.0,0.0,80,0.00,,,0.00,WUHU21623XXSP,2013-02-23 09:55:00,
2013-02-23 01:58:00,41.0,35.2,30.15,ESE,112,0.0,0.0,80,0.00,,,0.00,WUHU21623XXSP,2013-02-23 09:58:00,
2013-02-23 01:59:00,41.0,35.2,30.15,ESE,112,0.0,0.0,80,0.00,,,0.00,WUHU21623XXSP,2013-02-23 09:59:00,
2013-02-23 02:00:00,40.8,35.1,30.15,ESE,112,0.0,0.0,80,0.00,,,0.00,WUHU21623XXSP,2013-02-23 10:00:00,
2013-02-23 02:03:00,40.8,35.1,30.15,ESE,112,0.0,0.0,80,0.00,,,0.00,WUHU21623XXSP,2013-02-23 10:03:00,
2013-02-23 02:04:00,40.8,35.4,30.16,ESE,112,0.0,0.0,81,0.00,,,0.00,WUHU21623XXSP,2013-02-23 10:04:00,
2013-02-23 02:05:00,40.6,35.2,30.16,ESE,112,0.0,0.0,81,0.00,,,0.00,WUHU21623XXSP,2013-02-23 10:05:00,
2013-02-23 02:06:00,40.6,35.2,30.16,ESE,112,0.0,0.0,81,0.00,,,0.00,WUHU21623XXSP,2013-02-23 10:06:00,
2013-02-23 02:09:00,40.6,35.2,30.16,ESE,112,0.0,0.0,81,0.00,,,0.00,WUHU21623XXSP,2013-02-23 10:09:00,
2013-02-23 02:10:00,40.5,35.0,30.16,ESE,112,0.0,0.0,81,0.00,,,0.00,WUHU21623XXSP,2013-02-23 10:10:00,
2013-02-23 02:11:00,40.5,35.0,30.16,ESE,112,0.0,0.0,81,0.00,,,0.00,WUHU21623XXSP,2013-02-23 10:11:00,
2013-02-23 02:14:00,40.3,34.9,30.16,ESE,112,0.0,0.0,81,0.00,,,0.00,WUHU21623XXSP,2013-02-23 10:14:00,
2013-02-23 02:15:00,40.3,34.9,30.16,West,270,0.0,0.0,81,0.00,,,0.00,WUHU21623XXSP,2013-02-23 10:15:00,
2013-02-23 02:16:00,40.3,34.9,30.16,West,270,0.0,0.0,81,0.00,,,0.00,WUHU21623XXSP,2013-02-23 10:16:00,
2013-02-23 02:19:00,40.1,35.0,30.16,SW,225,0.0,1.8,82,0.00,,,0.00,WUHU21623XXSP,2013-02-23 10:19:00,
2013-02-23 02:21:00,39.9,34.8,30.16,SE,135,0.0,1.8,82,0.02,,,0.02,WUHU21623XXSP,2013-02-23 10:21:00,
2013-02-23 02:24:00,39.9,34.8,30.16,South,180,0.0,1.8,82,0.02,,,0.02,WUHU21623XXSP,2013-02-23 10:24:00,
2013-02-23 02:25:00,39.9,34.8,30.16,SW,225,0.0,1.8,82,0.02,,,0.02,WUHU21623XXSP,2013-02-23 10:25:00,
2013-02-23 02:26:00,39.9,34.8,30.16,WNW,292,0.0,1.8,82,0.02,,,0.02,WUHU21623XXSP,2013-02-23 10:26:00,
2013-02-23 02:29:00,39.7,35.0,30.16,ENE,67,0.0,0.0,83,0.02,,,0.02,WUHU21623XXSP,2013-02-23 10:29:00,
2013-02-23 02:30:00,39.6,34.5,30.16,NW,315,0.0,0.0,82,0.02,,,0.02,WUHU21623XXSP,2013-02-23 10:30:00,
2013-02-23 02:31:00,39.6,34.5,30.16,NW,315,2.7,4.5,82,0.02,,,0.02,WUHU21623XXSP,2013-02-23 10:31:00,
2013-02-23 02:34:00,39.4,34.4,30.16,West,270,0.0,4.5,82,0.02,,,0.02,WUHU21623XXSP,2013-02-23 10:34:00,
2013-02-23 02:35:00,39.4,34.4,30.16,West,270,0.0,4.9,82,0.02,,,0.02,WUHU21623XXSP,2013-02-23 10:35:00,
2013-02-23 02:36:00,39.4,34.6,30.16,SW,225,0.0,4.9,83,0.02,,,0.02,WUHU21623XXSP,2013-02-23 10:36:00,
2013-02-23 02:39:00,39.4,34.6,30.16,NW,315,0.0,6.7,83,0.02,,,0.02,WUHU21623XXSP,2013-02-23 10:39:00,
2013-02-23 02:40:00,39.4,34.6,30.16,West,270,0.0,6.7,83,0.04,,,0.04,WUHU21623XXSP,2013-02-23 10:40:00,
2013-02-23 02:41:00,39.4,34.6,30.16,WNW,292,5.1,6.7,83,0.04,,,0.04,WUHU21623XXSP,2013-02-23 10:41:00,
2013-02-23 02:42:00,39.4,34.9,30.16,West,270,0.0,6.7,84,0.04,,,0.04,WUHU21623XXSP,2013-02-23 10:42:00,
2013-02-23 02:44:00,39.4,34.9,30.16,West,270,5.1,6.7,84,0.04,,,0.04,WUHU21623XXSP,2013-02-23 10:44:00,
2013-02-23 02:45:00,39.4,34.9,30.17,WSW,247,0.0,11.0,84,0.04,,,0.04,WUHU21623XXSP,2013-02-23 10:45:00,
2013-02-23 02:46:00,39.4,34.9,30.17,WNW,292,0.0,11.0,84,0.04,,,0.04,WUHU21623XXSP,2013-02-23 10:46:00,
2013-02-23 02:47:00,39.4,34.9,30.16,SW,225,0.0,11.0,84,0.04,,,0.04,WUHU21623XXSP,2013-02-23 10:47:00,
2013-02-23 02:49:00,39.4,34.9,30.17,WSW,247,0.0,11.0,84,0.04,,,0.04,WUHU21623XXSP,2013-02-23 10:49:00,
2013-02-23 02:50:00,39.4,34.9,30.17,SW,225,2.5,11.0,84,0.04,,,0.04,WUHU21623XXSP,2013-02-23 10:50:00,
2013-02-23 02:51:00,39.4,34.9,30.17,WSW,247,5.4,11.0,84,0.04,,,0.04,WUHU21623XXSP,2013-02-23 10:51:00,
2013-02-23 02:52:00,39.4,34.9,30.17,SW,225,2.9,11.0,84,0.04,,,0.04,WUHU21623XXSP,2013-02-23 10:52:00,
2013-02-23 02:55:00,39.4,34.9,30.17,NW,315,0.0,5.6,84,0.04,,,0.04,WUHU21623XXSP,2013-02-23 10:55:00,
2013-02-23 02:56:00,39.4,34.9,30.16,WSW,247,0.0,8.7,84,0.04,,,0.04,WUHU21623XXSP,2013-02-23 10:56:00,
2013-02-23 02:57:00,39.4,34.9,30.17,SSW,202,0.0,8.7,84,0.04,,,0.04,WUHU21623XXSP,2013-02-23 10:57:00,
2013-02-23 03:00:00,39.4,34.9,30.17,West,270,2.5,8.7,84,0.04,,,0.04,WUHU21623XXSP,2013-02-23 11:00:00,
2013-02-23 03:01:00,39.4,34.9,30.17,West,270,0.0,8.7,84,0.04,,,0.04,WUHU21623XXSP,2013-02-23 11:01:00,
2013-02-23 03:02:00,39.4,34.9,30.17,West,270,0.0,8.7,84,0.04,,,0.04,WUHU21623XXSP,2013-02-23 11:02:00,
2013-02-23 03:05:00,39.4,34.9,30.17,West,270,0.0,8.7,84,0.04,,,0.04,WUHU21623XXSP,2013-02-23 11:05:00,
2013-02-23 03:06:00,39.4,34.9,30.17,WNW,292,0.0,6.9,84,0.04,,,0.04,WUHU21623XXSP,2013-02-23 11:06:00,
2013-02-23 03:07:00,39.6,35.4,30.17,WSW,247,0.0,6.5,85,0.04,,,0.04,WUHU21623XXSP,2013-02-23 11:07:00,
2013-02-23 03:10:00,39.6,35.4,30.17,SW,225,0.0,5.8,85,0.04,,,0.04,WUHU21623XXSP,2013-02-23 11:10:00,
2013-02-23 03:11:00,39.6,35.4,30.17,West,270,0.0,5.8,85,0.04,,,0.04,WUHU21623XXSP,2013-02-23 11:11:00,
2013-02-23 03:12:00,39.6,35.4,30.17,SE,135,0.0,3.4,85,0.04,,,0.04,WUHU21623XXSP,2013-02-23 11:12:00,
2013-02-23 03:13:00,39.6,35.4,30.17,SE,135,0.0,3.4,85,0.04,,,0.04,WUHU21623XXSP,2013-02-23 11:13:00,
2013-02-23 03:15:00,39.6,35.4,30.17,NNW,337,0.0,3.4,85,0.04,,,0.04,WUHU21623XXSP,2013-02-23 11:15:00,
2013-02-23 03:16:00,39.6,35.4,30.17,NNW,337,0.0,3.4,85,0.04,,,0.04,WUHU21623XXSP,2013-02-23 11:16:00,
2013-02-23 03:17:00,39.6,35.4,30.17,SW,225,0.0,2.2,85,0.02,,,0.04,WUHU21623XXSP,2013-02-23 11:17:00,
2013-02-23 03:18:00,39.6,35.4,30.16,SW,225,0.0,2.2,85,0.02,,,0.04,WUHU21623XXSP,2013-02-23 11:18:00,
2013-02-23 03:20:00,39.6,35.4,30.16,NW,315,2.7,5.1,85,0.02,,,0.04,WUHU21623XXSP,2013-02-23 11:20:00,
2013-02-23 03:21:00,39.6,35.4,30.16,SW,225,1.6,5.1,85,0.02,,,0.04,WUHU21623XXSP,2013-02-23 11:21:00,
2013-02-23 03:22:00,39.6,35.4,30.17,West,270,3.4,5.6,85,0.02,,,0.04,WUHU21623XXSP,2013-02-23 11:22:00,
2013-02-23 03:23:00,39.6,35.4,30.17,West,270,1.1,5.6,85,0.02,,,0.04,WUHU21623XXSP,2013-02-23 11:23:00,
2013-02-23 03:26:00,39.7,35.6,30.17,WSW,247,0.0,5.6,85,0.02,,,0.04,WUHU21623XXSP,2013-02-23 11:26:00,
2013-02-23 03:27:00,39.7,35.6,30.17,NNW,337,0.9,6.7,85,0.02,,,0.04,WUHU21623XXSP,2013-02-23 11:27:00,
2013-02-23 03:28:00,39.7,35.6,30.17,NW,315,0.0,6.7,85,0.02,,,0.04,WUHU21623XXSP,2013-02-23 11:28:00,
2013-02-23 03:31:00,39.7,35.6,30.17,NNW,337,0.0,6.7,85,0.02,,,0.04,WUHU21623XXSP,2013-02-23 11:31:00,
2013-02-23 03:32:00,39.7,35.6,30.17,SSW,202,0.0,6.7,85,0.02,,,0.04,WUHU21623XXSP,2013-02-23 11:32:00,
2013-02-23 03:33:00,39.7,35.6,30.17,North,0,0.0,6.9,85,0.02,,,0.04,WUHU21623XXSP,2013-02-23 11:33:00,
2013-02-23 03:36:00,39.9,35.7,30.17,West,270,0.0,6.9,85,0.04,,,0.06,WUHU21623XXSP,2013-02-23 11:36:00,
2013-02-23 03:37:00,39.9,35.7,30.17,NNW,337,4.0,6.9,85,0.02,,,0.06,WUHU21623XXSP,2013-02-23 11:37:00,
2013-02-23 03:38:00,39.9,35.7,30.17,NW,315,4.0,6.9,85,0.02,,,0.06,WUHU21623XXSP,2013-02-23 11:38:00,
2013-02-23 03:41:00,39.9,35.7,30.18,NNW,337,1.3,11.0,85,0.02,,,0.06,WUHU21623XXSP,2013-02-23 11:41:00,
2013-02-23 03:43:00,40.1,35.9,30.19,South,180,5.1,11.0,85,0.02,,,0.06,WUHU21623XXSP,2013-02-23 11:43:00,
2013-02-23 03:46:00,40.1,35.9,30.19,WNW,292,3.6,11.0,85,0.02,,,0.06,WUHU21623XXSP,2013-02-23 11:46:00,
2013-02-23 03:48:00,39.9,35.7,30.19,West,270,0.0,11.0,85,0.04,,,0.08,WUHU21623XXSP,2013-02-23 11:48:00,
2013-02-23 03:51:00,39.7,35.7,30.19,WNW,292,0.0,10.1,85,0.04,,,0.08,WUHU21623XXSP,2013-02-23 11:51:00,
2013-02-23 03:52:00,39.7,35.7,30.19,WNW,292,0.0,10.1,85,0.04,,,0.08,WUHU21623XXSP,2013-02-23 11:52:00,
2013-02-23 03:53:00,39.7,35.6,30.19,WNW,292,2.9,10.1,85,0.04,,,0.08,WUHU21623XXSP,2013-02-23 11:53:00,
2013-02-23 03:54:00,39.7,35.6,30.19,WNW,292,3.6,10.1,85,0.04,,,0.08,WUHU21623XXSP,2013-02-23 11:54:00,
2013-02-23 03:56:00,39.6,35.4,30.19,WSW,247,0.0,6.7,85,0.04,,,0.08,WUHU21623XXSP,2013-02-23 11:56:00,
2013-02-23 03:57:00,39.6,35.4,30.19,WSW,247,0.0,6.3,85,0.04,,,0.08,WUHU21623XXSP,2013-02-23 11:57:00,
2013-02-23 03:58:00,39.6,35.4,30.19,SSE,157,0.0,6.3,85,0.04,,,0.08,WUHU21623XXSP,2013-02-23 11:58:00,
2013-02-23 03:59:00,39.6,35.4,30.19,SW,225,0.0,6.3,85,0.04,,,0.08,WUHU21623XXSP,2013-02-23 11:59:00,
2013-02-23 04:02:00,39.4,35.2,30.19,WSW,247,0.0,3.6,85,0.04,,,0.08,WUHU21623XXSP,2013-02-23 12:02:00,
2013-02-23 04:03:00,39.4,35.2,30.19,NW,315,0.0,3.6,85,0.04,,,0.08,WUHU21623XXSP,2013-02-23 12:03:00,
2013-02-23 04:04:00,39.4,35.2,30.19,NNW,337,0.0,1.8,85,0.04,,,0.08,WUHU21623XXSP,2013-02-23 12:04:00,
2013-02-23 04:07:00,39.4,35.2,30.19,NE,45,0.0,1.8,85,0.04,,,0.08,WUHU21623XXSP,2013-02-23 12:07:00,
2013-02-23 04:08:00,39.4,35.2,30.19,NE,45,0.0,1.8,85,0.04,,,0.08,WUHU21623XXSP,2013-02-23 12:08:00,
2013-02-23 04:09:00,39.2,35.1,30.19,West,270,2.0,2.0,85,0.04,,,0.08,WUHU21623XXSP,2013-02-23 12:09:00,
2013-02-23 04:12:00,39.2,35.1,30.19,SW,225,0.0,2.0,85,0.06,,,0.10,WUHU21623XXSP,2013-02-23 12:12:00,
2013-02-23 04:13:00,39.0,34.9,30.18,SW,225,0.0,2.0,85,0.06,,,0.10,WUHU21623XXSP,2013-02-23 12:13:00,
2013-02-23 04:14:00,39.0,34.9,30.18,SW,225,0.0,2.0,85,0.06,,,0.10,WUHU21623XXSP,2013-02-23 12:14:00,
2013-02-23 04:17:00,39.0,34.9,30.19,SW,225,0.0,2.0,85,0.06,,,0.10,WUHU21623XXSP,2013-02-23 12:17:00,
2013-02-23 04:18:00,39.0,34.9,30.19,SW,225,0.0,2.0,85,0.06,,,0.10,WUHU21623XXSP,2013-02-23 12:18:00,
2013-02-23 04:19:00,39.0,34.9,30.19,SW,225,0.0,0.0,85,0.06,,,0.10,WUHU21623XXSP,2013-02-23 12:19:00,
2013-02-23 04:22:00,39.0,34.9,30.19,SW,225,0.0,0.0,85,0.06,,,0.10,WUHU21623XXSP,2013-02-23 12:22:00,
2013-02-23 04:23:00,39.0,34.9,30.19,SSW,202,0.0,0.0,85,0.06,,,0.10,WUHU21623XXSP,2013-02-23 12:23:00,
2013-02-23 04:24:00,39.0,34.9,30.19,South,180,0.0,0.0,85,0.06,,,0.10,WUHU21623XXSP,2013-02-23 12:24:00,
2013-02-23 04:27:00,39.0,34.9,30.19,South,180,0.0,0.0,85,0.06,,,0.10,WUHU21623XXSP,2013-02-23 12:27:00,
2013-02-23 04:28:00,38.8,34.7,30.19,South,180,0.0,0.0,85,0.06,,,0.10,WUHU21623XXSP,2013-02-23 12:28:00,
2013-02-23 04:29:00,38.8,34.7,30.19,South,180,0.0,0.0,85,0.06,,,0.10,WUHU21623XXSP,2013-02-23 12:29:00,
2013-02-23 04:32:00,38.8,34.7,30.19,South,180,0.0,0.0,85,0.04,,,0.10,WUHU21623XXSP,2013-02-23 12:32:00,
2013-02-23 04:33:00,38.8,34.7,30.19,South,180,0.0,0.0,85,0.04,,,0.10,WUHU21623XXSP,2013-02-23 12:33:00,
2013-02-23 04:34:00,38.8,34.7,30.19,South,180,0.0,0.0,85,0.04,,,0.10,WUHU21623XXSP,2013-02-23 12:34:00,
2013-02-23 04:37:00,38.8,34.7,30.19,South,180,0.0,0.0,85,0.04,,,0.10,WUHU21623XXSP,2013-02-23 12:37:00,
2013-02-23 04:38:00,38.8,34.7,30.19,South,180,0.0,0.0,85,0.04,,,0.10,WUHU21623XXSP,2013-02-23 12:38:00,
2013-02-23 04:39:00,38.7,34.5,30.19,South,180,0.0,0.0,85,0.04,,,0.10,WUHU21623XXSP,2013-02-23 12:39:00,
2013-02-23 04:40:00,38.5,34.3,30.19,South,180,0.0,0.0,85,0.04,,,0.10,WUHU21623XXSP,2013-02-23 12:40:00,
2013-02-23 04:42:00,38.5,34.3,30.19,South,180,0.0,0.0,85,0.04,,,0.10,WUHU21623XXSP,2013-02-23 12:42:00,
2013-02-23 04:43:00,38.5,34.3,30.19,South,180,0.0,0.0,85,0.04,,,0.10,WUHU21623XXSP,2013-02-23 12:43:00,
2013-02-23 04:44:00,38.5,34.3,30.19,South,180,0.0,0.0,85,0.02,,,0.10,WUHU21623XXSP,2013-02-23 12:44:00,
2013-02-23 04:45:00,38.5,34.3,30.19,South,180,0.0,0.0,85,0.02,,,0.10,WUHU21623XXSP,2013-02-23 12:45:00,
2013-02-23 04:48:00,38.5,34.3,30.19,South,180,0.0,0.0,85,0.02,,,0.10,WUHU21623XXSP,2013-02-23 12:48:00,
2013-02-23 04:49:00,38.5,34.3,30.19,South,180,0.0,0.0,85,0.02,,,0.10,WUHU21623XXSP,2013-02-23 12:49:00,
2013-02-23 04:50:00,38.3,34.2,30.19,South,180,0.0,0.0,85,0.02,,,0.10,WUHU21623XXSP,2013-02-23 12:50:00,
2013-02-23 04:53:00,38.3,34.2,30.19,South,180,0.0,0.0,85,0.02,,,0.10,WUHU21623XXSP,2013-02-23 12:53:00,
2013-02-23 04:55:00,38.1,34.0,30.19,South,180,0.0,0.0,85,0.02,,,0.10,WUHU21623XXSP,2013-02-23 12:55:00,
2013-02-23 04:58:00,38.1,34.0,30.20,South,180,0.0,0.0,85,0.02,,,0.10,WUHU21623XXSP,2013-02-23 12:58:00,
2013-02-23 05:00:00,38.1,34.0,30.20,South,180,0.0,0.0,85,0.02,,,0.10,WUHU21623XXSP,2013-02-23 13:00:00,
2013-02-23 05:03:00,37.9,34.1,30.20,WNW,292,0.0,1.1,86,0.02,,,0.10,WUHU21623XXSP,2013-02-23 13:03:00,
2013-02-23 05:05:00,37.9,34.1,30.20,WNW,292,0.0,1.1,86,0.02,,,0.10,WUHU21623XXSP,2013-02-23 13:05:00,
2013-02-23 05:08:00,37.9,34.1,30.21,SE,135,0.0,1.1,86,0.02,,,0.10,WUHU21623XXSP,2013-02-23 13:08:00,
2013-02-23 05:10:00,37.9,34.1,30.21,SE,135,0.0,1.1,86,0.00,,,0.10,WUHU21623XXSP,2013-02-23 13:10:00,
2013-02-23 05:13:00,37.9,34.1,30.21,SE,135,0.0,0.0,86,0.00,,,0.10,WUHU21623XXSP,2013-02-23 13:13:00,
2013-02-23 05:15:00,37.8,33.9,30.21,SE,135,0.0,0.0,86,0.00,,,0.10,WUHU21623XXSP,2013-02-23 13:15:00,
2013-02-23 05:16:00,37.9,34.1,30.21,SE,135,0.0,0.0,86,0.00,,,0.10,WUHU21623XXSP,2013-02-23 13:16:00,
2013-02-23 05:18:00,37.8,33.9,30.21,SE,135,0.0,0.0,86,0.00,,,0.10,WUHU21623XXSP,2013-02-23 13:18:00,
2013-02-23 05:20:00,37.8,33.9,30.21,SE,135,0.0,0.0,86,0.00,,,0.10,WUHU21623XXSP,2013-02-23 13:20:00,
2013-02-23 05:21:00,37.8,33.9,30.21,SE,135,0.0,0.0,86,0.00,,,0.10,WUHU21623XXSP,2013-02-23 13:21:00,
2013-02-23 05:23:00,37.8,33.9,30.21,SE,135,0.0,0.0,86,0.00,,,0.10,WUHU21623XXSP,2013-02-23 13:23:00,
2013-02-23 05:25:00,37.8,33.9,30.20,SE,135,0.0,0.0,86,0.00,,,0.10,WUHU21623XXSP,2013-02-23 13:25:00,
2013-02-23 05:28:00,37.6,33.7,30.21,SE,135,0.0,0.0,86,0.00,,,0.10,WUHU21623XXSP,2013-02-23 13:28:00,
2013-02-23 05:29:00,37.6,33.7,30.21,SE,135,0.0,0.0,86,0.00,,,0.10,WUHU21623XXSP,2013-02-23 13:29:00,
2013-02-23 05:30:00,37.6,33.7,30.21,SE,135,0.0,0.0,86,0.00,,,0.10,WUHU21623XXSP,2013-02-23 13:30:00,
2013-02-23 05:31:00,37.6,33.7,30.21,SE,135,0.0,0.0,86,0.00,,,0.10,WUHU21623XXSP,2013-02-23 13:31:00,
2013-02-23 05:34:00,37.6,33.7,30.21,SE,135,0.0,0.0,86,0.00,,,0.10,WUHU21623XXSP,2013-02-23 13:34:00,
2013-02-23 05:35:00,37.6,33.7,30.21,NNW,337,0.0,2.5,86,0.00,,,0.10,WUHU21623XXSP,2013-02-23 13:35:00,
2013-02-23 05:36:00,37.6,33.7,30.21,ENE,67,0.0,2.5,86,0.00,,,0.10,WUHU21623XXSP,2013-02-23 13:36:00,
2013-02-23 05:39:00,37.6,34.0,30.21,WSW,247,1.6,10.5,87,0.00,,,0.10,WUHU21623XXSP,2013-02-23 13:39:00,
2013-02-23 05:41:00,37.8,34.2,30.21,NW,315,0.0,10.5,87,0.00,,,0.10,WUHU21623XXSP,2013-02-23 13:41:00,
2013-02-23 05:44:00,37.9,34.4,30.21,NW,315,0.0,10.5,87,0.00,,,0.10,WUHU21623XXSP,2013-02-23 13:44:00,
2013-02-23 05:46:00,37.9,34.4,30.21,NE,45,0.0,10.5,87,0.00,,,0.10,WUHU21623XXSP,2013-02-23 13:46:00,
2013-02-23 05:49:00,38.1,34.6,30.21,NE,45,0.0,9.2,87,0.00,,,0.10,WUHU21623XXSP,2013-02-23 13:49:00,
2013-02-23 05:51:00,38.1,34.6,30.21,NE,45,0.0,6.5,87,0.00,,,0.10,WUHU21623XXSP,2013-02-23 13:51:00,
2013-02-23 05:54:00,38.1,34.6,30.21,NE,45,0.0,1.3,87,0.00,,,0.10,WUHU21623XXSP,2013-02-23 13:54:00,
2013-02-23 05:56:00,38.1,34.6,30.21,NE,45,0.0,1.3,87,0.00,,,0.10,WUHU21623XXSP,2013-02-23 13:56:00,
2013-02-23 05:59:00,38.1,34.6,30.22,NE,45,0.0,0.0,87,0.00,,,0.10,WUHU21623XXSP,2013-02-23 13:59:00,
2013-02-23 06:01:00,38.1,34.6,30.22,NE,45,0.0,0.0,87,0.00,,,0.10,WUHU21623XXSP,2013-02-23 14:01:00,
2013-02-23 06:04:00,38.1,34.6,30.22,ENE,67,0.0,0.0,87,0.00,,,0.10,WUHU21623XXSP,2013-02-23 14:04:00,
2013-02-23 06:05:00,38.1,34.6,30.22,ENE,67,0.0,0.0,87,0.00,,,0.10,WUHU21623XXSP,2013-02-23 14:05:00,
2013-02-23 06:06:00,38.1,34.6,30.22,ENE,67,0.0,0.0,87,0.00,,,0.10,WUHU21623XXSP,2013-02-23 14:06:00,
2013-02-23 06:07:00,37.9,34.4,30.22,ENE,67,0.0,0.0,87,0.00,,,0.10,WUHU21623XXSP,2013-02-23 14:07:00,
2013-02-23 06:09:00,37.9,34.4,30.22,ENE,67,0.0,0.0,87,0.00,,,0.10,WUHU21623XXSP,2013-02-23 14:09:00,
2013-02-23 06:10:00,37.9,34.4,30.22,ENE,67,0.0,0.0,87,0.00,,,0.10,WUHU21623XXSP,2013-02-23 14:10:00,
2013-02-23 06:11:00,37.9,34.4,30.22,ENE,67,0.0,0.0,87,0.00,,,0.10,WUHU21623XXSP,2013-02-23 14:11:00,
2013-02-23 06:12:00,37.9,34.4,30.22,ENE,67,0.0,0.0,87,0.00,,,0.10,WUHU21623XXSP,2013-02-23 14:12:00,
2013-02-23 06:14:00,37.9,34.4,30.23,ENE,67,0.0,0.0,87,0.00,,,0.10,WUHU21623XXSP,2013-02-23 14:14:00,
2013-02-23 06:15:00,37.9,34.4,30.23,ENE,67,0.0,0.0,87,0.00,,,0.10,WUHU21623XXSP,2013-02-23 14:15:00,
2013-02-23 06:16:00,37.9,34.4,30.24,NE,45,0.0,0.0,87,0.00,,,0.10,WUHU21623XXSP,2013-02-23 14:16:00,
2013-02-23 06:17:00,37.9,34.4,30.23,NE,45,0.0,0.0,87,0.00,,,0.10,WUHU21623XXSP,2013-02-23 14:17:00,
2013-02-23 06:19:00,37.8,34.2,30.24,NE,45,0.9,3.8,87,0.00,,,0.10,WUHU21623XXSP,2013-02-23 14:19:00,
2013-02-23 06:20:00,37.9,34.2,30.24,WSW,247,0.0,3.8,87,0.00,,,0.10,WUHU21623XXSP,2013-02-23 14:20:00,
2013-02-23 06:21:00,37.8,34.2,30.24,NW,315,0.0,3.8,87,0.00,,,0.10,WUHU21623XXSP,2013-02-23 14:21:00,
2013-02-23 06:22:00,37.9,34.4,30.23,North,0,0.0,3.8,87,0.00,,,0.10,WUHU21623XXSP,2013-02-23 14:22:00,
2013-02-23 06:25:00,37.9,34.4,30.24,West,270,0.0,6.3,87,0.00,,,0.10,WUHU21623XXSP,2013-02-23 14:25:00,
2013-02-23 06:26:00,38.1,34.6,30.24,West,270,0.0,6.3,87,0.00,,,0.10,WUHU21623XXSP,2013-02-23 14:26:00,
2013-02-23 06:27:00,38.1,34.6,30.24,NNW,337,0.0,6.3,87,0.00,,,0.10,WUHU21623XXSP,2013-02-23 14:27:00,
2013-02-23 06:30:00,38.3,35.0,30.24,West,270,0.0,9.6,88,0.00,,,0.10,WUHU21623XXSP,2013-02-23 14:30:00,
2013-02-23 06:31:00,38.5,35.2,30.24,NNW,337,3.4,9.6,88,0.00,,,0.10,WUHU21623XXSP,2013-02-23 14:31:00,
2013-02-23 06:32:00,38.5,35.2,30.24,North,0,0.0,9.6,88,0.00,,,0.10,WUHU21623XXSP,2013-02-23 14:32:00,
2013-02-23 06:35:00,38.5,35.2,30.23,NW,315,0.0,9.6,88,0.00,,,0.10,WUHU21623XXSP,2013-02-23 14:35:00,
2013-02-23 06:36:00,38.7,35.4,30.23,WSW,247,0.0,9.6,88,0.00,,,0.10,WUHU21623XXSP,2013-02-23 14:36:00,
2013-02-23 06:37:00,38.8,35.6,30.24,WNW,292,0.0,9.6,88,0.00,,,0.10,WUHU21623XXSP,2013-02-23 14:37:00,
2013-02-23 06:40:00,38.8,35.6,30.24,WNW,292,0.0,8.7,88,0.00,,,0.10,WUHU21623XXSP,2013-02-23 14:40:00,
2013-02-23 06:41:00,38.8,35.6,30.24,NW,315,0.0,3.4,88,0.00,,,0.10,WUHU21623XXSP,2013-02-23 14:41:00,
2013-02-23 06:42:00,38.8,35.6,30.24,NNW,337,1.1,2.0,88,0.00,,,0.10,WUHU21623XXSP,2013-02-23 14:42:00,
2013-02-23 06:45:00,38.8,35.6,30.24,WNW,292,0.0,1.8,88,0.00,,,0.10,WUHU21623XXSP,2013-02-23 14:45:00,
2013-02-23 06:46:00,38.8,35.6,30.24,WNW,292,0.0,1.8,88,0.00,,,0.10,WUHU21623XXSP,2013-02-23 14:46:00,
2013-02-23 06:48:00,38.8,35.6,30.24,WNW,292,0.0,1.8,88,0.02,,,0.12,WUHU21623XXSP,2013-02-23 14:48:00,
2013-02-23 06:50:00,38.8,35.6,30.24,WNW,292,0.0,1.8,88,0.02,,,0.12,WUHU21623XXSP,2013-02-23 14:50:00,
2013-02-23 06:51:00,38.8,35.6,30.24,WNW,292,0.0,1.8,88,0.02,,,0.12,WUHU21623XXSP,2013-02-23 14:51:00,
2013-02-23 06:53:00,38.8,35.6,30.24,WNW,292,0.0,1.8,88,0.02,,,0.12,WUHU21623XXSP,2013-02-23 14:53:00,
2013-02-23 06:55:00,39.0,35.7,30.24,WNW,292,0.0,0.0,88,0.02,,,0.12,WUHU21623XXSP,2013-02-23 14:55:00,
2013-02-23 06:56:00,39.0,35.7,30.24,WNW,292,0.0,0.0,88,0.02,,,0.12,WUHU21623XXSP,2013-02-23 14:56:00,
2013-02-23 06:58:00,39.0,35.7,30.24,WNW,292,0.0,0.0,88,0.02,,,0.12,WUHU21623XXSP,2013-02-23 14:58:00,
2013-02-23 07:00:00,39.0,35.5,30.24,WNW,292,0.0,0.0,87,0.02,,,0.12,WUHU21623XXSP,2013-02-23 15:00:00,
2013-02-23 07:01:00,39.0,35.5,30.24,WNW,292,0.0,0.0,87,0.02,,,0.12,WUHU21623XXSP,2013-02-23 15:01:00,
2013-02-23 07:02:00,39.0,35.5,30.24,WNW,292,0.0,0.0,87,0.02,,,0.12,WUHU21623XXSP,2013-02-23 15:02:00,
2013-02-23 07:03:00,39.0,35.5,30.24,WNW,292,0.0,0.0,87,0.02,,,0.12,WUHU21623XXSP,2013-02-23 15:03:00,
2013-02-23 07:05:00,39.0,35.5,30.25,West,270,0.0,0.0,87,0.02,,,0.12,WUHU21623XXSP,2013-02-23 15:05:00,
2013-02-23 07:06:00,39.0,35.5,30.25,West,270,1.1,1.6,87,0.02,,,0.12,WUHU21623XXSP,2013-02-23 15:06:00,
2013-02-23 07:07:00,39.0,35.5,30.25,West,270,0.0,1.6,87,0.02,,,0.12,WUHU21623XXSP,2013-02-23 15:07:00,
2013-02-23 07:08:00,39.0,35.5,30.25,WSW,247,0.0,1.6,87,0.02,,,0.12,WUHU21623XXSP,2013-02-23 15:08:00,
2013-02-23 07:11:00,39.0,35.5,30.25,SE,135,0.0,2.2,87,0.02,,,0.12,WUHU21623XXSP,2013-02-23 15:11:00,
2013-02-23 07:12:00,39.0,35.5,30.25,SE,135,0.0,2.2,87,0.02,,,0.12,WUHU21623XXSP,2013-02-23 15:12:00,
2013-02-23 07:13:00,39.0,35.5,30.25,SSW,202,0.0,2.2,87,0.02,,,0.12,WUHU21623XXSP,2013-02-23 15:13:00,
2013-02-23 07:16:00,39.0,35.5,30.24,SSW,202,0.0,2.2,87,0.02,,,0.12,WUHU21623XXSP,2013-02-23 15:16:00,
2013-02-23 07:17:00,39.0,35.5,30.25,SSW,202,0.0,2.2,87,0.02,,,0.12,WUHU21623XXSP,2013-02-23 15:17:00,
2013-02-23 07:18:00,39.0,35.7,30.25,SSW,202,0.0,2.2,88,0.02,,,0.12,WUHU21623XXSP,2013-02-23 15:18:00,
2013-02-23 07:21:00,39.0,35.7,30.25,SSW,202,0.0,0.0,88,0.02,,,0.12,WUHU21623XXSP,2013-02-23 15:21:00,
2013-02-23 07:22:00,39.0,35.7,30.25,SSW,202,0.0,0.0,88,0.02,,,0.12,WUHU21623XXSP,2013-02-23 15:22:00,
2013-02-23 07:23:00,39.0,35.7,30.25,SSW,202,0.0,0.0,88,0.02,,,0.12,WUHU21623XXSP,2013-02-23 15:23:00,
2013-02-23 07:26:00,39.0,35.7,30.25,SSW,202,0.0,0.0,88,0.02,,,0.12,WUHU21623XXSP,2013-02-23 15:26:00,
2013-02-23 07:27:00,39.0,35.7,30.25,SSW,202,0.0,0.0,88,0.02,,,0.12,WUHU21623XXSP,2013-02-23 15:27:00,
2013-02-23 07:28:00,39.0,35.7,30.25,SSW,202,0.0,0.0,88,0.02,,,0.12,WUHU21623XXSP,2013-02-23 15:28:00,
2013-02-23 07:31:00,39.0,35.7,30.25,ESE,112,0.0,0.0,88,0.02,,,0.12,WUHU21623XXSP,2013-02-23 15:31:00,
2013-02-23 07:32:00,39.0,35.7,30.25,ESE,112,0.0,0.0,88,0.02,,,0.12,WUHU21623XXSP,2013-02-23 15:32:00,
2013-02-23 07:33:00,39.0,35.7,30.25,ESE,112,0.0,0.0,88,0.02,,,0.12,WUHU21623XXSP,2013-02-23 15:33:00,
2013-02-23 07:34:00,39.4,36.1,30.25,SE,135,0.0,0.0,88,0.02,,,0.12,WUHU21623XXSP,2013-02-23 15:34:00,
2013-02-23 07:36:00,39.4,36.1,30.25,WSW,247,0.0,0.0,88,0.02,,,0.12,WUHU21623XXSP,2013-02-23 15:36:00,
2013-02-23 07:37:00,39.4,36.1,30.25,WSW,247,0.0,0.0,88,0.02,,,0.12,WUHU21623XXSP,2013-02-23 15:37:00,
2013-02-23 07:38:00,39.4,36.1,30.25,WSW,247,0.0,0.0,88,0.02,,,0.12,WUHU21623XXSP,2013-02-23 15:38:00,
2013-02-23 07:39:00,39.4,36.1,30.25,West,270,0.0,0.0,88,0.02,,,0.12,WUHU21623XXSP,2013-02-23 15:39:00,
2013-02-23 07:41:00,39.4,36.1,30.26,West,270,0.0,0.0,88,0.02,,,0.12,WUHU21623XXSP,2013-02-23 15:41:00,
2013-02-23 07:43:00,39.4,36.1,30.26,SSE,157,0.0,0.0,88,0.02,,,0.12,WUHU21623XXSP,2013-02-23 15:43:00,
2013-02-23 07:44:00,39.4,36.1,30.26,SSE,157,0.0,0.0,88,0.02,,,0.12,WUHU21623XXSP,2013-02-23 15:44:00,
2013-02-23 07:46:00,39.4,36.1,30.26,ESE,112,0.0,0.0,88,0.00,,,0.12,WUHU21623XXSP,2013-02-23 15:46:00,
2013-02-23 07:48:00,39.4,36.1,30.26,ESE,112,0.0,0.0,88,0.00,,,0.12,WUHU21623XXSP,2013-02-23 15:48:00,
2013-02-23 07:49:00,39.4,36.1,30.26,ESE,112,0.0,0.0,88,0.00,,,0.12,WUHU21623XXSP,2013-02-23 15:49:00,
2013-02-23 07:51:00,39.4,36.1,30.26,West,270,0.0,0.0,88,0.00,,,0.12,WUHU21623XXSP,2013-02-23 15:51:00,
2013-02-23 07:53:00,39.6,36.3,30.26,NW,315,0.0,0.0,88,0.00,,,0.12,WUHU21623XXSP,2013-02-23 15:53:00,
2013-02-23 07:54:00,39.6,36.3,30.26,NW,315,0.0,0.0,88,0.00,,,0.12,WUHU21623XXSP,2013-02-23 15:54:00,
2013-02-23 07:56:00,39.7,36.4,30.26,WSW,247,0.0,0.0,88,0.00,,,0.12,WUHU21623XXSP,2013-02-23 15:56:00,
2013-02-23 07:58:00,39.7,36.4,30.26,WNW,292,0.0,3.6,88,0.00,,,0.12,WUHU21623XXSP,2013-02-23 15:58:00,
2013-02-23 07:59:00,39.7,36.4,30.26,WNW,292,0.0,3.6,88,0.00,,,0.12,WUHU21623XXSP,2013-02-23 15:59:00,
2013-02-23 08:00:00,39.7,36.4,30.26,West,270,0.0,3.6,88,0.00,,,0.12,WUHU21623XXSP,2013-02-23 16:00:00,
2013-02-23 08:01:00,39.9,36.4,30.26,West,270,0.0,3.6,88,0.00,,,0.12,WUHU21623XXSP,2013-02-23 16:01:00,
2013-02-23 08:03:00,39.9,36.6,30.26,NNW,337,0.0,3.6,88,0.00,,,0.12,WUHU21623XXSP,2013-02-23 16:03:00,
2013-02-23 08:04:00,39.9,36.6,30.26,NNW,337,0.0,3.6,88,0.00,,,0.12,WUHU21623XXSP,2013-02-23 16:04:00,
2013-02-23 08:05:00,39.9,36.6,30.26,NNW,337,0.0,3.6,88,0.00,,,0.12,WUHU21623XXSP,2013-02-23 16:05:00,
2013-02-23 08:06:00,39.9,36.6,30.26,NW,315,0.0,3.6,88,0.00,,,0.12,WUHU21623XXSP,2013-02-23 16:06:00,
2013-02-23 08:08:00,40.1,36.8,30.26,NW,315,0.0,0.0,88,0.00,,,0.12,WUHU21623XXSP,2013-02-23 16:08:00,
2013-02-23 08:09:00,40.1,36.8,30.26,NW,315,0.0,0.0,88,0.00,,,0.12,WUHU21623XXSP,2013-02-23 16:09:00,
2013-02-23 08:10:00,40.1,36.8,30.26,NW,315,0.0,0.0,88,0.00,,,0.12,WUHU21623XXSP,2013-02-23 16:10:00,
2013-02-23 08:11:00,40.1,36.8,30.26,NW,315,0.0,0.0,88,0.00,,,0.12,WUHU21623XXSP,2013-02-23 16:11:00,
2013-02-23 08:14:00,40.3,37.0,30.26,NW,315,0.0,0.0,88,0.00,,,0.12,WUHU21623XXSP,2013-02-23 16:14:00,
2013-02-23 08:15:00,40.3,37.0,30.26,NW,315,0.0,0.0,88,0.00,,,0.12,WUHU21623XXSP,2013-02-23 16:15:00,
2013-02-23 08:16:00,40.5,37.1,30.26,NW,315,0.0,0.0,88,0.00,,,0.12,WUHU21623XXSP,2013-02-23 16:16:00,
2013-02-23 08:19:00,40.6,37.3,30.26,NW,315,0.0,0.0,88,0.00,,,0.12,WUHU21623XXSP,2013-02-23 16:19:00,
2013-02-23 08:20:00,40.6,37.3,30.26,NW,315,0.0,0.0,88,0.00,,,0.12,WUHU21623XXSP,2013-02-23 16:20:00,
2013-02-23 08:21:00,40.8,37.5,30.26,NW,315,0.0,0.0,88,0.00,,,0.12,WUHU21623XXSP,2013-02-23 16:21:00,
2013-02-23 08:24:00,40.8,37.5,30.27,NW,315,0.0,0.0,88,0.00,,,0.12,WUHU21623XXSP,2013-02-23 16:24:00,
2013-02-23 08:25:00,40.8,37.5,30.28,NW,315,0.0,0.0,88,0.00,,,0.12,WUHU21623XXSP,2013-02-23 16:25:00,
2013-02-23 08:26:00,40.8,37.5,30.28,WSW,247,5.6,6.0,88,0.00,,,0.12,WUHU21623XXSP,2013-02-23 16:26:00,
2013-02-23 08:29:00,40.8,37.5,30.28,NE,45,0.0,12.8,88,0.02,,,0.14,WUHU21623XXSP,2013-02-23 16:29:00,
2013-02-23 08:30:00,40.8,37.5,30.29,NNE,22,0.0,12.8,88,0.02,,,0.14,WUHU21623XXSP,2013-02-23 16:30:00,
2013-02-23 08:31:00,41.0,37.7,30.29,NE,45,0.0,12.8,88,0.02,,,0.14,WUHU21623XXSP,2013-02-23 16:31:00,
2013-02-23 08:34:00,40.8,37.5,30.29,NE,45,0.0,12.8,88,0.04,,,0.16,WUHU21623XXSP,2013-02-23 16:34:00,
2013-02-23 08:35:00,40.8,37.5,30.29,NE,45,0.0,12.8,88,0.04,,,0.16,WUHU21623XXSP,2013-02-23 16:35:00,
2013-02-23 08:37:00,40.8,37.5,30.29,NNE,22,0.0,12.8,88,0.06,,,0.18,WUHU21623XXSP,2013-02-23 16:37:00,
2013-02-23 08:39:00,40.6,37.5,30.29,East,90,0.0,4.0,88,0.06,,,0.18,WUHU21623XXSP,2013-02-23 16:39:00,
2013-02-23 08:41:00,40.6,37.3,30.29,WNW,292,0.0,4.0,88,0.06,,,0.18,WUHU21623XXSP,2013-02-23 16:41:00,
2013-02-23 08:42:00,40.6,37.3,30.30,West,270,0.0,4.0,88,0.06,,,0.18,WUHU21623XXSP,2013-02-23 16:42:00,
2013-02-23 08:44:00,40.5,37.1,30.30,NW,315,0.0,4.0,88,0.08,,,0.18,WUHU21623XXSP,2013-02-23 16:44:00,
2013-02-23 08:45:00,40.3,37.0,30.30,West,270,4.0,4.0,88,0.08,,,0.20,WUHU21623XXSP,2013-02-23 16:45:00,
2013-02-23 08:46:00,40.3,37.0,30.30,West,270,0.0,4.0,88,0.08,,,0.20,WUHU21623XXSP,2013-02-23 16:46:00,
2013-02-23 08:47:00,40.1,36.8,30.30,WNW,292,3.4,4.7,88,0.08,,,0.20,WUHU21623XXSP,2013-02-23 16:47:00,
2013-02-23 08:49:00,39.9,36.6,30.31,WNW,292,0.0,4.7,88,0.10,,,0.22,WUHU21623XXSP,2013-02-23 16:49:00,
2013-02-23 08:50:00,39.9,36.6,30.31,WSW,247,1.8,4.7,88,0.10,,,0.22,WUHU21623XXSP,2013-02-23 16:50:00,
2013-02-23 08:51:00,39.7,36.4,30.31,NW,315,0.0,4.7,88,0.10,,,0.22,WUHU21623XXSP,2013-02-23 16:51:00,
2013-02-23 08:52:00,39.7,36.4,30.31,North,0,0.0,10.3,88,0.10,,,0.22,WUHU21623XXSP,2013-02-23 16:52:00,
2013-02-23 08:54:00,39.7,36.4,30.31,WSW,247,0.0,10.3,88,0.12,,,0.24,WUHU21623XXSP,2013-02-23 16:54:00,
2013-02-23 08:55:00,39.6,36.3,30.31,SSE,157,0.0,10.3,88,0.12,,,0.24,WUHU21623XXSP,2013-02-23 16:55:00,
2013-02-23 08:56:00,39.6,36.3,30.31,NE,45,0.0,10.3,88,0.12,,,0.24,WUHU21623XXSP,2013-02-23 16:56:00,
2013-02-23 08:57:00,39.6,36.3,30.31,NNW,337,0.0,10.3,88,0.12,,,0.24,WUHU21623XXSP,2013-02-23 16:57:00,
2013-02-23 08:59:00,39.4,36.1,30.31,WSW,247,0.0,10.3,88,0.12,,,0.24,WUHU21623XXSP,2013-02-23 16:59:00,
2013-02-23 09:00:00,39.4,35.8,30.31,North,0,0.0,10.3,87,0.12,,,0.24,WUHU21623XXSP,2013-02-23 17:00:00,
2013-02-23 09:02:00,39.4,35.8,30.31,NNE,22,1.6,10.3,87,0.14,,,0.26,WUHU21623XXSP,2013-02-23 17:02:00,
2013-02-23 09:04:00,39.4,35.8,30.31,West,270,3.8,8.9,87,0.14,,,0.26,WUHU21623XXSP,2013-02-23 17:04:00,
2013-02-23 09:05:00,39.4,35.8,30.31,West,270,0.0,8.9,87,0.14,,,0.26,WUHU21623XXSP,2013-02-23 17:05:00,
2013-02-23 09:07:00,39.0,35.5,30.31,WSW,247,2.0,10.3,87,0.14,,,0.26,WUHU21623XXSP,2013-02-23 17:07:00,
2013-02-23 09:09:00,39.0,35.7,30.31,WSW,247,0.0,10.3,88,0.14,,,0.26,WUHU21623XXSP,2013-02-23 17:09:00,
2013-02-23 09:10:00,39.2,35.9,30.31,WSW,247,0.0,10.3,88,0.16,,,0.28,WUHU21623XXSP,2013-02-23 17:10:00,
2013-02-23 09:12:00,39.2,35.9,30.31,WNW,292,0.0,10.3,88,0.16,,,0.28,WUHU21623XXSP,2013-02-23 17:12:00,
2013-02-23 09:13:00,39.2,35.9,30.31,WNW,292,0.0,10.3,88,0.16,,,0.28,WUHU21623XXSP,2013-02-23 17:13:00,
2013-02-23 09:14:00,39.4,36.1,30.31,West,270,0.0,10.3,88,0.16,,,0.28,WUHU21623XXSP,2013-02-23 17:14:00,
2013-02-23 09:15:00,39.2,35.9,30.30,NNW,337,0.0,10.3,88,0.16,,,0.28,WUHU21623XXSP,2013-02-23 17:15:00,
2013-02-23 09:17:00,39.4,36.1,30.31,West,270,2.2,4.3,88,0.16,,,0.28,WUHU21623XXSP,2013-02-23 17:17:00,
2013-02-23 09:18:00,39.4,36.1,30.30,WNW,292,0.0,4.3,88,0.16,,,0.28,WUHU21623XXSP,2013-02-23 17:18:00,
2013-02-23 09:20:00,39.4,36.1,30.31,West,270,0.0,14.1,88,0.16,,,0.28,WUHU21623XXSP,2013-02-23 17:20:00,
2013-02-23 09:22:00,39.4,36.1,30.31,West,270,0.0,14.1,88,0.16,,,0.28,WUHU21623XXSP,2013-02-23 17:22:00,
2013-02-23 09:23:00,39.4,36.1,30.31,West,270,0.0,14.1,88,0.16,,,0.28,WUHU21623XXSP,2013-02-23 17:23:00,
2013-02-23 09:25:00,39.4,36.1,30.31,West,270,0.0,14.1,88,0.14,,,0.28,WUHU21623XXSP,2013-02-23 17:25:00,
2013-02-23 09:27:00,39.6,36.3,30.31,West,270,0.0,14.1,88,0.14,,,0.28,WUHU21623XXSP,2013-02-23 17:27:00,
2013-02-23 09:28:00,39.6,36.3,30.31,West,270,0.0,14.1,88,0.14,,,0.28,WUHU21623XXSP,2013-02-23 17:28:00,
2013-02-23 09:30:00,39.7,36.4,30.31,West,270,0.0,0.0,88,0.12,,,0.28,WUHU21623XXSP,2013-02-23 17:30:00,
2013-02-23 09:32:00,39.9,36.6,30.31,West,270,0.0,0.0,88,0.12,,,0.28,WUHU21623XXSP,2013-02-23 17:32:00,
2013-02-23 09:33:00,39.9,36.6,30.31,West,270,0.0,0.0,88,0.12,,,0.28,WUHU21623XXSP,2013-02-23 17:33:00,
2013-02-23 09:35:00,39.9,36.6,30.31,West,270,0.0,0.0,88,0.12,,,0.28,WUHU21623XXSP,2013-02-23 17:35:00,
2013-02-23 09:37:00,40.3,36.8,30.31,West,270,0.0,0.0,88,0.10,,,0.28,WUHU21623XXSP,2013-02-23 17:37:00,
2013-02-23 09:38:00,40.3,37.0,30.32,West,270,0.0,0.0,88,0.10,,,0.28,WUHU21623XXSP,2013-02-23 17:38:00,
2013-02-23 09:40:00,40.5,37.1,30.32,WSW,247,0.0,4.3,88,0.10,,,0.28,WUHU21623XXSP,2013-02-23 17:40:00,
2013-02-23 09:43:00,40.6,37.3,30.32,West,270,0.0,6.9,88,0.08,,,0.28,WUHU21623XXSP,2013-02-23 17:43:00,
2013-02-23 09:45:00,40.8,37.5,30.32,NNE,22,0.0,6.9,88,0.08,,,0.28,WUHU21623XXSP,2013-02-23 17:45:00,
2013-02-23 09:46:00,40.8,37.5,30.32,WNW,292,0.0,7.4,88,0.08,,,0.28,WUHU21623XXSP,2013-02-23 17:46:00,
2013-02-23 09:48:00,40.8,37.5,30.32,West,270,0.0,7.4,88,0.08,,,0.28,WUHU21623XXSP,2013-02-23 17:48:00,
2013-02-23 09:50:00,40.8,37.5,30.32,West,270,0.0,9.2,88,0.06,,,0.28,WUHU21623XXSP,2013-02-23 17:50:00,
2013-02-23 09:51:00,40.8,37.5,30.32,SSW,202,0.0,9.2,88,0.06,,,0.28,WUHU21623XXSP,2013-02-23 17:51:00,
2013-02-23 09:53:00,40.8,37.5,30.32,SW,225,0.0,9.2,88,0.06,,,0.31,WUHU21623XXSP,2013-02-23 17:53:00,
2013-02-23 09:55:00,40.8,37.5,30.32,WSW,247,0.0,9.2,88,0.06,,,0.31,WUHU21623XXSP,2013-02-23 17:55:00,
2013-02-23 09:56:00,40.8,37.5,30.32,North,0,0.0,9.2,88,0.06,,,0.31,WUHU21623XXSP,2013-02-23 17:56:00,
2013-02-23 09:58:00,40.8,37.5,30.32,WSW,247,0.0,9.2,88,0.06,,,0.31,WUHU21623XXSP,2013-02-23 17:58:00,
2013-02-23 10:00:00,40.8,37.5,30.32,WNW,292,0.0,4.0,88,0.04,,,0.31,WUHU21623XXSP,2013-02-23 18:00:00,
2013-02-23 10:01:00,41.0,37.7,30.32,West,270,0.0,0.0,88,0.04,,,0.31,WUHU21623XXSP,2013-02-23 18:01:00,
2013-02-23 10:03:00,41.2,37.9,30.32,SSW,202,0.0,0.0,88,0.04,,,0.31,WUHU21623XXSP,2013-02-23 18:03:00,
2013-02-23 10:05:00,41.2,37.9,30.32,SSW,202,0.0,0.0,88,0.04,,,0.31,WUHU21623XXSP,2013-02-23 18:05:00,
2013-02-23 10:06:00,41.4,38.0,30.32,SSW,202,0.0,0.0,88,0.04,,,0.31,WUHU21623XXSP,2013-02-23 18:06:00,
2013-02-23 10:08:00,41.5,38.2,30.32,SSW,202,0.0,0.0,88,0.02,,,0.31,WUHU21623XXSP,2013-02-23 18:08:00,
2013-02-23 10:10:00,41.5,38.5,30.32,WSW,247,0.0,0.0,89,0.02,,,0.31,WUHU21623XXSP,2013-02-23 18:10:00,
2013-02-23 10:11:00,41.9,38.9,30.32,WSW,247,0.0,0.0,89,0.02,,,0.31,WUHU21623XXSP,2013-02-23 18:11:00,
2013-02-23 10:13:00,42.1,39.1,30.32,SW,225,0.0,0.0,89,0.02,,,0.31,WUHU21623XXSP,2013-02-23 18:13:00,
2013-02-23 10:14:00,42.4,39.4,30.32,SW,225,0.0,0.0,89,0.02,,,0.31,WUHU21623XXSP,2013-02-23 18:14:00,
2013-02-23 10:15:00,42.4,39.4,30.33,WNW,292,0.0,0.0,89,0.02,,,0.31,WUHU21623XXSP,2013-02-23 18:15:00,
2013-02-23 10:17:00,42.6,39.6,30.32,WNW,292,0.0,3.1,89,0.02,,,0.31,WUHU21623XXSP,2013-02-23 18:17:00,
2013-02-23 10:18:00,42.8,39.8,30.33,WSW,247,0.0,3.1,89,0.02,,,0.31,WUHU21623XXSP,2013-02-23 18:18:00,
2013-02-23 10:19:00,43.0,40.0,30.33,WSW,247,0.0,3.1,89,0.02,,,0.31,WUHU21623XXSP,2013-02-23 18:19:00,
2013-02-23 10:20:00,43.2,40.2,30.33,SW,225,2.9,3.1,89,0.02,,,0.31,WUHU21623XXSP,2013-02-23 18:20:00,
2013-02-23 10:22:00,43.3,40.3,30.33,North,0,2.0,3.4,89,0.02,,,0.31,WUHU21623XXSP,2013-02-23 18:22:00,
2013-02-23 10:23:00,43.5,40.5,30.33,South,180,0.0,3.4,89,0.02,,,0.31,WUHU21623XXSP,2013-02-23 18:23:00,
2013-02-23 10:24:00,43.5,40.5,30.33,SW,225,1.6,3.4,89,0.02,,,0.31,WUHU21623XXSP,2013-02-23 18:24:00,
2013-02-23 10:25:00,43.7,40.7,30.33,WNW,292,0.0,3.4,89,0.02,,,0.31,WUHU21623XXSP,2013-02-23 18:25:00,
2013-02-23 10:27:00,43.9,41.2,30.33,NNW,337,1.6,3.4,90,0.02,,,0.31,WUHU21623XXSP,2013-02-23 18:27:00,
2013-02-23 10:29:00,44.1,41.4,30.33,NW,315,0.0,3.4,90,0.02,,,0.31,WUHU21623XXSP,2013-02-23 18:29:00,
2013-02-23 10:31:00,44.4,41.7,30.33,NNW,337,0.0,3.4,90,0.02,,,0.31,WUHU21623XXSP,2013-02-23 18:31:00,
2013-02-23 10:32:00,44.4,41.7,30.33,NNW,337,0.0,2.2,90,0.02,,,0.31,WUHU21623XXSP,2013-02-23 18:32:00,
2013-02-23 10:34:00,44.4,41.4,30.33,WNW,292,2.2,2.2,89,0.02,,,0.31,WUHU21623XXSP,2013-02-23 18:34:00,
2013-02-23 10:35:00,44.6,41.6,30.33,WNW,292,2.9,5.1,89,0.02,,,0.31,WUHU21623XXSP,2013-02-23 18:35:00,
2013-02-23 10:36:00,44.8,41.8,30.33,West,270,0.0,6.5,89,0.02,,,0.31,WUHU21623XXSP,2013-02-23 18:36:00,
2013-02-23 10:37:00,45.0,42.0,30.33,WNW,292,0.0,6.5,89,0.02,,,0.31,WUHU21623XXSP,2013-02-23 18:37:00,
2013-02-23 10:39:00,45.0,42.0,30.33,NNW,337,0.0,6.5,89,0.02,,,0.31,WUHU21623XXSP,2013-02-23 18:39:00,
2013-02-23 10:40:00,45.0,42.0,30.33,SW,225,4.0,6.5,89,0.02,,,0.31,WUHU21623XXSP,2013-02-23 18:40:00,
2013-02-23 10:41:00,45.0,42.0,30.33,NW,315,0.0,6.5,89,0.02,,,0.31,WUHU21623XXSP,2013-02-23 18:41:00,
2013-02-23 10:42:00,45.1,42.1,30.34,North,0,0.0,7.4,89,0.02,,,0.31,WUHU21623XXSP,2013-02-23 18:42:00,
2013-02-23 10:44:00,45.3,42.3,30.34,WNW,292,0.0,7.4,89,0.02,,,0.31,WUHU21623XXSP,2013-02-23 18:44:00,
2013-02-23 10:45:00,45.3,42.3,30.34,WSW,247,0.0,7.4,89,0.02,,,0.31,WUHU21623XXSP,2013-02-23 18:45:00,
2013-02-23 10:46:00,45.3,42.3,30.34,NE,45,0.7,7.4,88,0.02,,,0.31,WUHU21623XXSP,2013-02-23 18:46:00,
2013-02-23 10:47:00,45.1,42.0,30.34,WNW,292,15.9,15.9,88,0.02,,,0.31,WUHU21623XXSP,2013-02-23 18:47:00,
2013-02-23 10:49:00,45.1,41.8,30.35,West,270,4.5,15.9,88,0.00,,,0.31,WUHU21623XXSP,2013-02-23 18:49:00,
2013-02-23 10:50:00,45.1,41.5,30.34,NW,315,1.3,15.9,87,0.00,,,0.31,WUHU21623XXSP,2013-02-23 18:50:00,
2013-02-23 10:51:00,45.0,41.3,30.34,NW,315,0.0,15.9,87,0.00,,,0.31,WUHU21623XXSP,2013-02-23 18:51:00,
2013-02-23 10:53:00,45.0,41.0,30.34,WNW,292,0.0,15.9,86,0.00,,,0.31,WUHU21623XXSP,2013-02-23 18:53:00,
2013-02-23 10:54:00,44.8,40.9,30.34,WNW,292,0.0,15.9,86,0.00,,,0.31,WUHU21623XXSP,2013-02-23 18:54:00,
2013-02-23 10:55:00,44.8,40.9,30.34,NW,315,2.2,15.9,86,0.00,,,0.31,WUHU21623XXSP,2013-02-23 18:55:00,
2013-02-23 10:56:00,44.8,40.9,30.34,West,270,0.0,15.9,86,0.00,,,0.31,WUHU21623XXSP,2013-02-23 18:56:00,
2013-02-23 10:58:00,44.4,40.5,30.34,WNW,292,0.0,6.0,86,0.00,,,0.31,WUHU21623XXSP,2013-02-23 18:58:00,
2013-02-23 10:59:00,44.4,40.5,30.34,WNW,292,0.0,2.2,86,0.00,,,0.31,WUHU21623XXSP,2013-02-23 18:59:00,
2013-02-23 11:00:00,44.4,40.5,30.34,WNW,292,0.0,2.2,86,0.00,,,0.31,WUHU21623XXSP,2013-02-23 19:00:00,
2013-02-23 11:01:00,44.4,40.5,30.34,WNW,292,0.0,2.2,86,0.00,,,0.31,WUHU21623XXSP,2013-02-23 19:01:00,
2013-02-23 11:03:00,44.4,40.5,30.34,WNW,292,0.0,2.2,86,0.00,,,0.31,WUHU21623XXSP,2013-02-23 19:03:00,
2013-02-23 11:04:00,44.4,40.5,30.34,North,0,0.0,2.2,86,0.00,,,0.31,WUHU21623XXSP,2013-02-23 19:04:00,
2013-02-23 11:05:00,44.4,40.5,30.34,North,0,0.0,0.0,86,0.00,,,0.31,WUHU21623XXSP,2013-02-23 19:05:00,
2013-02-23 11:06:00,44.4,40.5,30.34,North,0,0.0,0.0,86,0.00,,,0.31,WUHU21623XXSP,2013-02-23 19:06:00,
2013-02-23 11:08:00,44.4,40.5,30.34,North,0,0.0,0.0,86,0.00,,,0.31,WUHU21623XXSP,2013-02-23 19:08:00,
2013-02-23 11:09:00,44.4,40.5,30.34,North,0,0.0,0.0,86,0.00,,,0.31,WUHU21623XXSP,2013-02-23 19:09:00,
2013-02-23 11:10:00,44.4,40.5,30.34,North,0,0.0,0.0,86,0.00,,,0.31,WUHU21623XXSP,2013-02-23 19:10:00,
2013-02-23 11:12:00,44.4,40.5,30.34,North,0,0.0,0.0,86,0.00,,,0.31,WUHU21623XXSP,2013-02-23 19:12:00,
2013-02-23 11:14:00,44.4,40.5,30.35,WSW,247,0.0,0.0,86,0.00,,,0.31,WUHU21623XXSP,2013-02-23 19:14:00,
2013-02-23 11:15:00,44.4,40.5,30.34,SW,225,0.0,0.0,86,0.00,,,0.31,WUHU21623XXSP,2013-02-23 19:15:00,
2013-02-23 11:17:00,44.4,40.8,30.34,WSW,247,0.0,0.0,87,0.00,,,0.31,WUHU21623XXSP,2013-02-23 19:17:00,
2013-02-23 11:19:00,44.6,41.0,30.34,West,270,0.0,0.0,87,0.00,,,0.31,WUHU21623XXSP,2013-02-23 19:19:00,
2013-02-23 11:20:00,44.8,41.2,30.34,West,270,0.0,0.0,87,0.00,,,0.31,WUHU21623XXSP,2013-02-23 19:20:00,
2013-02-23 11:21:00,45.0,41.3,30.34,West,270,0.0,0.0,87,0.00,,,0.31,WUHU21623XXSP,2013-02-23 19:21:00,
2013-02-23 11:22:00,45.0,41.3,30.34,West,270,0.0,0.0,87,0.00,,,0.31,WUHU21623XXSP,2013-02-23 19:22:00,
2013-02-23 11:24:00,45.1,41.5,30.34,SSW,202,0.0,0.0,87,0.00,,,0.31,WUHU21623XXSP,2013-02-23 19:24:00,
2013-02-23 11:25:00,45.1,41.5,30.34,WNW,292,0.0,0.2,87,0.00,,,0.31,WUHU21623XXSP,2013-02-23 19:25:00,
2013-02-23 11:26:00,45.3,41.7,30.35,NNW,337,0.0,0.2,87,0.00,,,0.31,WUHU21623XXSP,2013-02-23 19:26:00,
2013-02-23 11:27:00,45.3,41.7,30.35,NNE,22,0.0,0.2,87,0.00,,,0.31,WUHU21623XXSP,2013-02-23 19:27:00,
2013-02-23 11:29:00,45.7,42.1,30.35,NNW,337,0.0,2.9,87,0.00,,,0.31,WUHU21623XXSP,2013-02-23 19:29:00,
2013-02-23 11:30:00,45.7,42.1,30.34,WNW,292,2.2,2.9,87,0.00,,,0.31,WUHU21623XXSP,2013-02-23 19:30:00,
2013-02-23 11:31:00,45.7,42.1,30.35,North,0,0.0,2.9,87,0.00,,,0.31,WUHU21623XXSP,2013-02-23 19:31:00,
2013-02-23 11:32:00,46.0,42.4,30.34,WNW,292,0.0,2.9,87,0.00,,,0.31,WUHU21623XXSP,2013-02-23 19:32:00,
2013-02-23 11:34:00,46.0,42.4,30.35,West,270,2.0,2.9,87,0.00,,,0.31,WUHU21623XXSP,2013-02-23 19:34:00,
2013-02-23 11:35:00,46.2,42.6,30.35,WNW,292,6.9,6.9,87,0.00,,,0.31,WUHU21623XXSP,2013-02-23 19:35:00,
2013-02-23 11:37:00,46.2,42.6,30.34,NW,315,0.0,6.9,87,0.00,,,0.31,WUHU21623XXSP,2013-02-23 19:37:00,
2013-02-23 11:39:00,46.4,42.5,30.35,West,270,5.4,6.9,86,0.00,,,0.31,WUHU21623XXSP,2013-02-23 19:39:00,
2013-02-23 11:40:00,46.6,42.6,30.34,NW,315,0.0,6.9,86,0.00,,,0.31,WUHU21623XXSP,2013-02-23 19:40:00,
2013-02-23 11:42:00,46.6,42.6,30.35,NNW,337,0.0,6.9,86,0.00,,,0.31,WUHU21623XXSP,2013-02-23 19:42:00,
2013-02-23 11:43:00,46.8,42.8,30.35,WNW,292,0.0,6.9,86,0.00,,,0.31,WUHU21623XXSP,2013-02-23 19:43:00,
2013-02-23 11:44:00,46.8,42.8,30.35,West,270,0.0,6.9,86,0.00,,,0.31,WUHU21623XXSP,2013-02-23 19:44:00,
2013-02-23 11:46:00,46.9,43.0,30.35,West,270,0.0,5.4,86,0.00,,,0.31,WUHU21623XXSP,2013-02-23 19:46:00,
2013-02-23 11:47:00,46.9,42.7,30.35,NW,315,0.0,5.4,85,0.00,,,0.31,WUHU21623XXSP,2013-02-23 19:47:00,
2013-02-23 11:48:00,47.1,42.9,30.35,West,270,2.9,5.4,85,0.00,,,0.31,WUHU21623XXSP,2013-02-23 19:48:00,
2013-02-23 11:50:00,47.1,42.9,30.35,North,0,0.0,3.8,85,0.00,,,0.31,WUHU21623XXSP,2013-02-23 19:50:00,
2013-02-23 11:51:00,47.1,42.9,30.35,NW,315,0.0,3.8,85,0.00,,,0.31,WUHU21623XXSP,2013-02-23 19:51:00,
2013-02-23 11:52:00,47.3,42.7,30.35,WSW,247,1.6,6.0,84,0.00,,,0.31,WUHU21623XXSP,2013-02-23 19:52:00,
2013-02-23 11:53:00,47.3,42.7,30.35,WSW,247,3.1,7.6,84,0.00,,,0.31,WUHU21623XXSP,2013-02-23 19:53:00,
2013-02-23 11:55:00,47.5,42.9,30.35,West,270,0.0,7.6,84,0.00,,,0.31,WUHU21623XXSP,2013-02-23 19:55:00,
2013-02-23 11:56:00,47.5,42.9,30.35,West,270,1.6,7.6,84,0.00,,,0.31,WUHU21623XXSP,2013-02-23 19:56:00,
2013-02-23 11:57:00,47.5,42.9,30.35,NW,315,2.2,7.6,84,0.00,,,0.31,WUHU21623XXSP,2013-02-23 19:57:00,
2013-02-23 11:58:00,47.7,43.0,30.35,West,270,0.0,7.6,84,0.00,,,0.31,WUHU21623XXSP,2013-02-23 19:58:00,
2013-02-23 12:00:00,47.7,42.7,30.35,NW,315,0.0,7.6,83,0.00,,,0.31,WUHU21623XXSP,2013-02-23 20:00:00,
2013-02-23 12:01:00,47.8,42.9,30.35,WNW,292,3.6,7.6,83,0.00,,,0.31,WUHU21623XXSP,2013-02-23 20:01:00,
2013-02-23 12:02:00,47.8,42.9,30.35,WNW,292,0.0,7.6,83,0.00,,,0.31,WUHU21623XXSP,2013-02-23 20:02:00,
2013-02-23 12:04:00,48.0,42.7,30.35,SW,225,0.0,7.4,82,0.00,,,0.31,WUHU21623XXSP,2013-02-23 20:04:00,
2013-02-23 12:05:00,48.0,42.7,30.35,NNW,337,2.7,7.4,82,0.00,,,0.31,WUHU21623XXSP,2013-02-23 20:05:00,
2013-02-23 12:06:00,48.0,42.7,30.35,WNW,292,4.3,7.4,82,0.00,,,0.31,WUHU21623XXSP,2013-02-23 20:06:00,
2013-02-23 12:07:00,48.0,42.7,30.35,WNW,292,0.0,7.8,82,0.00,,,0.31,WUHU21623XXSP,2013-02-23 20:07:00,
2013-02-23 12:09:00,48.2,42.6,30.35,West,270,8.9,8.9,81,0.00,,,0.31,WUHU21623XXSP,2013-02-23 20:09:00,
2013-02-23 12:10:00,48.4,42.7,30.35,NW,315,0.0,8.9,81,0.00,,,0.31,WUHU21623XXSP,2013-02-23 20:10:00,
2013-02-23 12:11:00,48.4,42.7,30.35,WSW,247,0.0,8.9,81,0.00,,,0.31,WUHU21623XXSP,2013-02-23 20:11:00,
2013-02-23 12:12:00,48.4,42.7,30.35,WSW,247,10.1,10.1,81,0.00,,,0.31,WUHU21623XXSP,2013-02-23 20:12:00,
2013-02-23 12:15:00,48.6,42.6,30.34,NW,315,0.0,10.1,80,0.00,,,0.31,WUHU21623XXSP,2013-02-23 20:15:00,
2013-02-23 12:16:00,48.7,42.8,30.35,West,270,7.2,10.1,80,0.00,,,0.31,WUHU21623XXSP,2013-02-23 20:16:00,
2013-02-23 12:17:00,48.7,42.8,30.35,West,270,0.0,10.1,80,0.00,,,0.31,WUHU21623XXSP,2013-02-23 20:17:00,
2013-02-23 12:20:00,48.9,42.6,30.35,West,270,0.0,10.1,79,0.00,,,0.31,WUHU21623XXSP,2013-02-23 20:20:00,
2013-02-23 12:21:00,48.9,42.6,30.34,SSW,202,6.3,10.1,79,0.00,,,0.31,WUHU21623XXSP,2013-02-23 20:21:00,
2013-02-23 12:22:00,48.9,42.6,30.35,NW,315,2.0,9.8,79,0.00,,,0.31,WUHU21623XXSP,2013-02-23 20:22:00,
2013-02-23 12:25:00,48.9,42.3,30.35,NW,315,3.4,9.8,78,0.00,,,0.31,WUHU21623XXSP,2013-02-23 20:25:00,
2013-02-23 12:26:00,48.9,42.3,30.35,WSW,247,4.0,9.8,78,0.00,,,0.31,WUHU21623XXSP,2013-02-23 20:26:00,
2013-02-23 12:28:00,48.7,42.1,30.35,WSW,247,6.0,9.8,78,0.00,,,0.31,WUHU21623XXSP,2013-02-23 20:28:00,
2013-02-23 12:30:00,48.6,41.6,30.35,NW,315,0.0,9.8,77,0.00,,,0.31,WUHU21623XXSP,2013-02-23 20:30:00,
2013-02-23 12:31:00,48.6,41.6,30.35,WSW,247,6.5,8.1,77,0.00,,,0.31,WUHU21623XXSP,2013-02-23 20:31:00,
2013-02-23 12:32:00,48.6,41.6,30.35,NW,315,2.7,8.1,77,0.00,,,0.31,WUHU21623XXSP,2013-02-23 20:32:00,
2013-02-23 12:33:00,48.4,41.4,30.35,WNW,292,0.2,10.5,77,0.00,,,0.31,WUHU21623XXSP,2013-02-23 20:33:00,
2013-02-23 12:35:00,48.4,41.4,30.35,West,270,5.1,10.5,77,0.00,,,0.31,WUHU21623XXSP,2013-02-23 20:35:00,
2013-02-23 12:36:00,48.0,41.1,30.35,WSW,247,3.1,10.5,77,0.00,,,0.31,WUHU21623XXSP,2013-02-23 20:36:00,
2013-02-23 12:37:00,48.0,41.1,30.35,WSW,247,0.0,10.5,77,0.00,,,0.31,WUHU21623XXSP,2013-02-23 20:37:00,
2013-02-23 12:38:00,47.8,40.9,30.35,WSW,247,4.9,10.5,77,0.00,,,0.31,WUHU21623XXSP,2013-02-23 20:38:00,
2013-02-23 12:40:00,47.8,40.9,30.35,NW,315,2.7,10.5,77,0.00,,,0.31,WUHU21623XXSP,2013-02-23 20:40:00,
2013-02-23 12:41:00,47.5,40.6,30.35,WSW,247,0.0,10.5,77,0.00,,,0.31,WUHU21623XXSP,2013-02-23 20:41:00,
2013-02-23 12:42:00,47.5,40.6,30.35,WSW,247,3.8,8.7,77,0.00,,,0.31,WUHU21623XXSP,2013-02-23 20:42:00,
2013-02-23 12:43:00,47.3,40.4,30.35,WSW,247,4.9,8.7,77,0.00,,,0.31,WUHU21623XXSP,2013-02-23 20:43:00,
2013-02-23 12:45:00,47.5,40.6,30.35,WSW,247,2.0,6.9,77,0.00,,,0.31,WUHU21623XXSP,2013-02-23 20:45:00,
2013-02-23 12:46:00,47.3,40.4,30.34,SW,225,6.3,6.9,77,0.00,,,0.31,WUHU21623XXSP,2013-02-23 20:46:00,
2013-02-23 12:47:00,47.5,40.6,30.35,NW,315,0.0,6.9,77,0.00,,,0.31,WUHU21623XXSP,2013-02-23 20:47:00,
2013-02-23 12:49:00,47.3,40.4,30.35,NW,315,3.4,6.3,77,0.00,,,0.31,WUHU21623XXSP,2013-02-23 20:49:00,
2013-02-23 12:51:00,47.5,40.6,30.35,West,270,2.2,6.3,77,0.00,,,0.31,WUHU21623XXSP,2013-02-23 20:51:00,
2013-02-23 12:53:00,47.5,40.6,30.34,NNW,337,0.0,6.3,77,0.00,,,0.31,WUHU21623XXSP,2013-02-23 20:53:00,
2013-02-23 12:54:00,47.5,40.6,30.34,WSW,247,1.8,6.3,77,0.00,,,0.31,WUHU21623XXSP,2013-02-23 20:54:00,
2013-02-23 12:56:00,47.7,40.7,30.34,West,270,1.6,12.5,77,0.00,,,0.31,WUHU21623XXSP,2013-02-23 20:56:00,
2013-02-23 12:58:00,47.8,40.9,30.34,North,0,0.0,12.5,77,0.00,,,0.31,WUHU21623XXSP,2013-02-23 20:58:00,
2013-02-23 12:59:00,47.8,40.9,30.34,West,270,3.8,12.5,77,0.00,,,0.31,WUHU21623XXSP,2013-02-23 20:59:00,
2013-02-23 13:01:00,48.0,40.7,30.34,NNW,337,3.8,12.5,76,0.00,,,0.31,WUHU21623XXSP,2013-02-23 21:01:00,
2013-02-23 13:03:00,48.0,40.4,30.34,West,270,6.5,12.5,75,0.00,,,0.31,WUHU21623XXSP,2013-02-23 21:03:00,
2013-02-23 13:04:00,48.0,40.4,30.34,NNW,337,0.7,8.1,75,0.00,,,0.31,WUHU21623XXSP,2013-02-23 21:04:00,
2013-02-23 13:06:00,48.0,40.4,30.34,West,270,6.5,8.1,75,0.00,,,0.31,WUHU21623XXSP,2013-02-23 21:06:00,
2013-02-23 13:07:00,48.2,40.2,30.34,North,0,3.1,8.1,74,0.00,,,0.31,WUHU21623XXSP,2013-02-23 21:07:00,
2013-02-23 13:08:00,48.2,40.2,30.34,WNW,292,1.8,8.1,74,0.00,,,0.31,WUHU21623XXSP,2013-02-23 21:08:00,
2013-02-23 13:09:00,48.4,40.4,30.34,WNW,292,2.9,8.1,74,0.00,,,0.31,WUHU21623XXSP,2013-02-23 21:09:00,
2013-02-23 13:11:00,48.4,40.4,30.34,NNW,337,0.9,11.4,74,0.00,,,0.31,WUHU21623XXSP,2013-02-23 21:11:00,
2013-02-23 13:12:00,48.4,40.4,30.34,ENE,67,1.8,11.4,74,0.00,,,0.31,WUHU21623XXSP,2013-02-23 21:12:00,
2013-02-23 13:14:00,48.6,40.6,30.34,NW,315,0.0,11.4,74,0.00,,,0.31,WUHU21623XXSP,2013-02-23 21:14:00,
2013-02-23 13:16:00,48.6,40.6,30.34,NW,315,0.7,11.4,74,0.00,,,0.31,WUHU21623XXSP,2013-02-23 21:16:00,
2013-02-23 13:17:00,48.7,40.7,30.34,NW,315,0.9,11.4,74,0.00,,,0.31,WUHU21623XXSP,2013-02-23 21:17:00,
2013-02-23 13:19:00,48.7,40.4,30.34,NNW,337,0.0,11.4,73,0.00,,,0.31,WUHU21623XXSP,2013-02-23 21:19:00,
2013-02-23 13:21:00,48.7,40.4,30.34,WSW,247,6.9,9.4,73,0.00,,,0.31,WUHU21623XXSP,2013-02-23 21:21:00,
2013-02-23 13:22:00,48.9,40.6,30.34,SSW,202,5.4,9.4,73,0.00,,,0.31,WUHU21623XXSP,2013-02-23 21:22:00,
2013-02-23 13:24:00,49.1,40.8,30.34,WSW,247,6.5,10.3,73,0.00,,,0.31,WUHU21623XXSP,2013-02-23 21:24:00,
2013-02-23 13:25:00,49.1,40.4,30.34,WNW,292,3.4,10.3,72,0.00,,,0.31,WUHU21623XXSP,2013-02-23 21:25:00,
2013-02-23 13:26:00,49.1,40.4,30.34,NW,315,1.6,10.3,72,0.00,,,0.31,WUHU21623XXSP,2013-02-23 21:26:00,
2013-02-23 13:27:00,49.3,40.6,30.34,West,270,4.0,10.3,72,0.00,,,0.31,WUHU21623XXSP,2013-02-23 21:27:00,
2013-02-23 13:29:00,49.5,40.4,30.34,NNW,337,12.1,12.1,71,0.00,,,0.31,WUHU21623XXSP,2013-02-23 21:29:00,
2013-02-23 13:30:00,49.6,40.6,30.34,NW,315,9.2,12.1,71,0.00,,,0.31,WUHU21623XXSP,2013-02-23 21:30:00,
2013-02-23 13:31:00,49.6,40.3,30.34,West,270,8.1,12.1,70,0.00,,,0.31,WUHU21623XXSP,2013-02-23 21:31:00,
2013-02-23 13:32:00,49.6,39.9,30.34,West,270,6.5,12.1,69,0.00,,,0.31,WUHU21623XXSP,2013-02-23 21:32:00,
2013-02-23 13:34:00,49.8,39.7,30.34,West,270,1.1,12.1,68,0.00,,,0.31,WUHU21623XXSP,2013-02-23 21:34:00,
2013-02-23 13:35:00,49.8,39.7,30.34,West,270,4.7,12.1,68,0.00,,,0.31,WUHU21623XXSP,2013-02-23 21:35:00,
2013-02-23 13:36:00,49.8,39.7,30.33,NE,45,5.1,12.1,68,0.00,,,0.31,WUHU21623XXSP,2013-02-23 21:36:00,
2013-02-23 13:38:00,49.8,39.7,30.34,NNW,337,2.5,12.1,68,0.00,,,0.31,WUHU21623XXSP,2013-02-23 21:38:00,
2013-02-23 13:39:00,49.8,40.1,30.34,NW,315,0.0,11.4,69,0.00,,,0.31,WUHU21623XXSP,2013-02-23 21:39:00,
2013-02-23 13:40:00,49.8,40.1,30.33,WSW,247,5.4,11.4,69,0.00,,,0.31,WUHU21623XXSP,2013-02-23 21:40:00,
2013-02-23 13:41:00,50.2,40.4,30.34,WNW,292,8.1,11.4,69,0.00,,,0.31,WUHU21623XXSP,2013-02-23 21:41:00,
2013-02-23 13:43:00,50.2,40.4,30.34,North,0,3.6,11.4,69,0.00,,,0.31,WUHU21623XXSP,2013-02-23 21:43:00,
2013-02-23 13:44:00,50.2,40.0,30.33,NNW,337,0.0,10.3,68,0.00,,,0.31,WUHU21623XXSP,2013-02-23 21:44:00,
2013-02-23 13:45:00,50.2,40.0,30.33,North,0,0.0,10.3,68,0.00,,,0.31,WUHU21623XXSP,2013-02-23 21:45:00,
2013-02-23 13:46:00,50.4,40.6,30.34,NNW,337,3.1,10.3,69,0.00,,,0.31,WUHU21623XXSP,2013-02-23 21:46:00,
2013-02-23 13:48:00,50.4,40.2,30.34,NW,315,2.9,10.3,68,0.00,,,0.31,WUHU21623XXSP,2013-02-23 21:48:00,
2013-02-23 13:50:00,50.4,39.8,30.34,SE,135,0.0,10.3,67,0.00,,,0.31,WUHU21623XXSP,2013-02-23 21:50:00,
2013-02-23 13:51:00,50.4,39.8,30.34,North,0,0.0,10.3,67,0.00,,,0.31,WUHU21623XXSP,2013-02-23 21:51:00,
2013-02-23 13:53:00,50.5,40.0,30.33,North,0,3.1,6.3,67,0.00,,,0.31,WUHU21623XXSP,2013-02-23 21:53:00,
2013-02-23 13:55:00,50.5,40.0,30.33,NW,315,0.0,5.4,67,0.00,,,0.31,WUHU21623XXSP,2013-02-23 21:55:00,
2013-02-23 13:56:00,50.5,40.0,30.33,SW,225,1.3,7.2,67,0.00,,,0.31,WUHU21623XXSP,2013-02-23 21:56:00,
2013-02-23 13:57:00,50.7,40.5,30.33,South,180,0.0,7.2,68,0.00,,,0.31,WUHU21623XXSP,2013-02-23 21:57:00,
2013-02-23 13:58:00,50.7,40.5,30.34,NW,315,0.0,7.2,68,0.00,,,0.31,WUHU21623XXSP,2013-02-23 21:58:00,
2013-02-23 14:00:00,50.9,40.7,30.33,NNE,22,0.0,7.2,68,0.00,,,0.31,WUHU21623XXSP,2013-02-23 22:00:00,
2013-02-23 14:01:00,50.9,40.7,30.33,NE,45,0.0,7.2,68,0.00,,,0.31,WUHU21623XXSP,2013-02-23 22:01:00,
2013-02-23 14:02:00,50.9,40.7,30.33,NW,315,1.8,7.2,68,0.00,,,0.31,WUHU21623XXSP,2013-02-23 22:02:00,
2013-02-23 14:04:00,51.3,41.1,30.34,NNW,337,3.4,7.8,68,0.00,,,0.31,WUHU21623XXSP,2013-02-23 22:04:00,
2013-02-23 14:05:00,51.4,41.3,30.33,NW,315,0.0,7.8,68,0.00,,,0.31,WUHU21623XXSP,2013-02-23 22:05:00,
2013-02-23 14:06:00,51.4,41.7,30.33,North,0,0.0,7.8,69,0.00,,,0.31,WUHU21623XXSP,2013-02-23 22:06:00,
2013-02-23 14:07:00,51.4,41.7,30.33,NW,315,6.7,7.8,69,0.00,,,0.31,WUHU21623XXSP,2013-02-23 22:07:00,
2013-02-23 14:09:00,51.4,41.7,30.33,West,270,0.0,7.8,69,0.00,,,0.31,WUHU21623XXSP,2013-02-23 22:09:00,
2013-02-23 14:10:00,51.4,41.7,30.33,West,270,4.5,8.5,69,0.00,,,0.31,WUHU21623XXSP,2013-02-23 22:10:00,
2013-02-23 14:11:00,51.4,41.7,30.33,NNW,337,1.6,8.5,69,0.00,,,0.31,WUHU21623XXSP,2013-02-23 22:11:00,
2013-02-23 14:12:00,51.6,41.8,30.34,West,270,3.4,8.7,69,0.00,,,0.31,WUHU21623XXSP,2013-02-23 22:12:00,
2013-02-23 14:14:00,51.6,41.4,30.33,NW,315,4.9,8.7,68,0.00,,,0.31,WUHU21623XXSP,2013-02-23 22:14:00,
2013-02-23 14:15:00,51.6,41.4,30.33,NW,315,0.0,8.7,68,0.00,,,0.31,WUHU21623XXSP,2013-02-23 22:15:00,
2013-02-23 14:16:00,51.6,41.4,30.33,West,270,2.7,8.7,68,0.00,,,0.31,WUHU21623XXSP,2013-02-23 22:16:00,
2013-02-23 14:17:00,51.6,41.4,30.33,North,0,0.0,8.7,68,0.00,,,0.31,WUHU21623XXSP,2013-02-23 22:17:00,
2013-02-23 14:19:00,51.6,41.4,30.34,South,180,0.0,8.7,68,0.00,,,0.31,WUHU21623XXSP,2013-02-23 22:19:00,
2013-02-23 14:20:00,51.6,41.4,30.34,ESE,112,1.3,8.7,68,0.00,,,0.31,WUHU21623XXSP,2013-02-23 22:20:00,
2013-02-23 14:21:00,51.6,41.4,30.34,West,270,9.2,9.2,68,0.00,,,0.31,WUHU21623XXSP,2013-02-23 22:21:00,
2013-02-23 14:22:00,51.6,41.4,30.34,WNW,292,0.0,9.2,68,0.00,,,0.31,WUHU21623XXSP,2013-02-23 22:22:00,
2013-02-23 14:24:00,51.6,41.4,30.34,WNW,292,2.5,9.2,68,0.00,,,0.31,WUHU21623XXSP,2013-02-23 22:24:00,
2013-02-23 14:25:00,51.6,41.4,30.34,WSW,247,0.0,9.4,68,0.00,,,0.31,WUHU21623XXSP,2013-02-23 22:25:00,
2013-02-23 14:26:00,51.6,41.4,30.34,WNW,292,4.5,9.4,68,0.00,,,0.31,WUHU21623XXSP,2013-02-23 22:26:00,
2013-02-23 14:27:00,51.6,40.6,30.34,West,270,4.0,9.4,66,0.00,,,0.31,WUHU21623XXSP,2013-02-23 22:27:00,
2013-02-23 14:29:00,51.4,40.4,30.34,West,270,0.0,9.4,66,0.00,,,0.31,WUHU21623XXSP,2013-02-23 22:29:00,
2013-02-23 14:30:00,51.6,40.2,30.35,NNW,337,0.7,9.4,65,0.00,,,0.31,WUHU21623XXSP,2013-02-23 22:30:00,
2013-02-23 14:32:00,51.6,40.6,30.34,WNW,292,5.6,9.4,66,0.00,,,0.31,WUHU21623XXSP,2013-02-23 22:32:00,
2013-02-23 14:34:00,51.4,40.0,30.35,NE,45,0.0,9.2,65,0.00,,,0.31,WUHU21623XXSP,2013-02-23 22:34:00,
2013-02-23 14:35:00,51.4,40.0,30.35,NNW,337,0.0,9.2,65,0.00,,,0.31,WUHU21623XXSP,2013-02-23 22:35:00,
2013-02-23 14:37:00,51.3,39.8,30.35,North,0,2.0,9.2,65,0.00,,,0.31,WUHU21623XXSP,2013-02-23 22:37:00,
2013-02-23 14:39:00,51.1,39.7,30.35,NNE,22,1.1,9.2,65,0.00,,,0.31,WUHU21623XXSP,2013-02-23 22:39:00,
2013-02-23 14:40:00,51.3,39.8,30.35,NW,315,5.1,9.2,65,0.00,,,0.31,WUHU21623XXSP,2013-02-23 22:40:00,
2013-02-23 14:43:00,51.1,39.3,30.35,SW,225,0.4,8.3,64,0.00,,,0.31,WUHU21623XXSP,2013-02-23 22:43:00,
2013-02-23 14:44:00,51.1,39.3,30.35,WSW,247,0.0,8.3,64,0.00,,,0.31,WUHU21623XXSP,2013-02-23 22:44:00,
2013-02-23 14:46:00,50.9,39.1,30.35,West,270,0.0,8.3,64,0.00,,,0.31,WUHU21623XXSP,2013-02-23 22:46:00,
2013-02-23 14:48:00,50.9,39.1,30.35,NW,315,3.1,8.7,64,0.00,,,0.31,WUHU21623XXSP,2013-02-23 22:48:00,
2013-02-23 14:50:00,50.9,39.1,30.35,West,270,2.9,8.7,64,0.00,,,0.31,WUHU21623XXSP,2013-02-23 22:50:00,
2013-02-23 14:51:00,50.9,39.1,30.35,West,270,2.7,8.7,64,0.00,,,0.31,WUHU21623XXSP,2013-02-23 22:51:00,
2013-02-23 14:53:00,50.7,38.9,30.35,West,270,0.0,8.7,64,0.00,,,0.31,WUHU21623XXSP,2013-02-23 22:53:00,
2013-02-23 14:55:00,50.7,39.3,30.35,West,270,0.0,8.7,65,0.00,,,0.31,WUHU21623XXSP,2013-02-23 22:55:00,
2013-02-23 14:56:00,50.7,39.3,30.35,West,270,1.3,8.7,65,0.00,,,0.31,WUHU21623XXSP,2013-02-23 22:56:00,
2013-02-23 14:58:00,50.7,39.3,30.35,NNW,337,2.2,8.5,65,0.00,,,0.31,WUHU21623XXSP,2013-02-23 22:58:00,
2013-02-23 15:00:00,50.7,39.3,30.36,West,270,3.6,8.5,65,0.00,,,0.31,WUHU21623XXSP,2013-02-23 23:00:00,
2013-02-23 15:01:00,50.7,39.3,30.35,WNW,292,1.3,6.0,65,0.00,,,0.31,WUHU21623XXSP,2013-02-23 23:01:00,
2013-02-23 15:03:00,50.9,39.5,30.35,WNW,292,0.0,6.0,65,0.00,,,0.31,WUHU21623XXSP,2013-02-23 23:03:00,
2013-02-23 15:04:00,50.9,39.5,30.35,NNW,337,0.0,6.0,65,0.00,,,0.31,WUHU21623XXSP,2013-02-23 23:04:00,
2013-02-23 15:05:00,50.7,39.3,30.35,WNW,292,5.4,6.0,65,0.00,,,0.31,WUHU21623XXSP,2013-02-23 23:05:00,
2013-02-23 15:06:00,50.7,39.3,30.35,NNW,337,0.0,6.0,65,0.00,,,0.31,WUHU21623XXSP,2013-02-23 23:06:00,
2013-02-23 15:08:00,50.7,39.3,30.35,WSW,247,0.0,6.0,65,0.00,,,0.31,WUHU21623XXSP,2013-02-23 23:08:00,
2013-02-23 15:09:00,50.7,39.3,30.35,SW,225,5.1,6.0,65,0.00,,,0.31,WUHU21623XXSP,2013-02-23 23:09:00,
2013-02-23 15:10:00,50.7,39.3,30.35,SW,225,1.6,6.0,65,0.00,,,0.31,WUHU21623XXSP,2013-02-23 23:10:00,
2013-02-23 15:11:00,50.7,39.7,30.35,WSW,247,0.0,6.0,66,0.00,,,0.31,WUHU21623XXSP,2013-02-23 23:11:00,
2013-02-23 15:13:00,50.7,39.7,30.35,West,270,3.6,5.6,66,0.00,,,0.31,WUHU21623XXSP,2013-02-23 23:13:00,
2013-02-23 15:14:00,50.7,39.7,30.35,West,270,3.1,5.6,66,0.00,,,0.31,WUHU21623XXSP,2013-02-23 23:14:00,
2013-02-23 15:15:00,50.7,39.7,30.35,NW,315,0.0,5.6,66,0.00,,,0.31,WUHU21623XXSP,2013-02-23 23:15:00,
2013-02-23 15:17:00,50.7,39.7,30.35,WNW,292,2.0,5.6,66,0.00,,,0.31,WUHU21623XXSP,2013-02-23 23:17:00,
2013-02-23 15:18:00,50.7,39.7,30.35,West,270,4.0,5.6,66,0.00,,,0.31,WUHU21623XXSP,2013-02-23 23:18:00,
2013-02-23 15:19:00,50.7,39.7,30.35,West,270,3.4,5.6,66,0.00,,,0.31,WUHU21623XXSP,2013-02-23 23:19:00,
2013-02-23 15:21:00,50.7,39.7,30.35,NW,315,4.3,6.7,66,0.00,,,0.31,WUHU21623XXSP,2013-02-23 23:21:00,
2013-02-23 15:22:00,50.7,39.3,30.35,SW,225,0.9,6.7,65,0.00,,,0.31,WUHU21623XXSP,2013-02-23 23:22:00,
2013-02-23 15:23:00,50.7,39.3,30.36,WNW,292,3.4,6.7,65,0.00,,,0.31,WUHU21623XXSP,2013-02-23 23:23:00,
2013-02-23 15:24:00,50.7,39.3,30.36,WSW,247,8.1,8.1,65,0.00,,,0.31,WUHU21623XXSP,2013-02-23 23:24:00,
2013-02-23 15:26:00,50.5,39.2,30.36,West,270,0.0,8.1,65,0.00,,,0.31,WUHU21623XXSP,2013-02-23 23:26:00,
2013-02-23 15:27:00,50.5,39.2,30.36,WSW,247,0.0,8.1,65,0.00,,,0.31,WUHU21623XXSP,2013-02-23 23:27:00,
2013-02-23 15:28:00,50.5,39.6,30.36,WNW,292,2.5,8.1,66,0.00,,,0.31,WUHU21623XXSP,2013-02-23 23:28:00,
2013-02-23 15:29:00,50.5,39.6,30.35,WSW,247,4.7,8.1,66,0.00,,,0.31,WUHU21623XXSP,2013-02-23 23:29:00,
2013-02-23 15:31:00,50.5,39.6,30.36,NNW,337,0.0,8.1,66,0.00,,,0.31,WUHU21623XXSP,2013-02-23 23:31:00,
2013-02-23 15:32:00,50.5,39.6,30.36,WSW,247,0.7,8.1,66,0.00,,,0.31,WUHU21623XXSP,2013-02-23 23:32:00,
2013-02-23 15:33:00,50.4,39.4,30.36,NW,315,7.6,8.1,66,0.00,,,0.31,WUHU21623XXSP,2013-02-23 23:33:00,
2013-02-23 15:34:00,50.5,39.6,30.36,NW,315,1.1,7.6,66,0.00,,,0.31,WUHU21623XXSP,2013-02-23 23:34:00,
2013-02-23 15:36:00,50.4,39.4,30.35,West,270,1.3,7.6,66,0.00,,,0.31,WUHU21623XXSP,2013-02-23 23:36:00,
2013-02-23 15:37:00,50.5,39.6,30.35,WSW,247,0.0,9.2,66,0.00,,,0.31,WUHU21623XXSP,2013-02-23 23:37:00,
2013-02-23 15:39:00,50.5,40.0,30.36,North,0,2.7,9.2,67,0.00,,,0.31,WUHU21623XXSP,2013-02-23 23:39:00,
2013-02-23 15:41:00,50.4,39.8,30.36,NNW,337,2.2,9.2,67,0.00,,,0.31,WUHU21623XXSP,2013-02-23 23:41:00,
2013-02-23 15:42:00,50.4,39.8,30.36,NW,315,6.0,9.2,67,0.00,,,0.31,WUHU21623XXSP,2013-02-23 23:42:00,
2013-02-23 15:44:00,50.4,39.8,30.36,North,0,0.0,9.2,67,0.00,,,0.31,WUHU21623XXSP,2013-02-23 23:44:00,
2013-02-23 15:46:00,50.2,39.6,30.36,ENE,67,0.0,9.2,67,0.00,,,0.31,WUHU21623XXSP,2013-02-23 23:46:00,
2013-02-23 15:47:00,50.4,39.8,30.36,West,270,0.0,6.3,67,0.00,,,0.31,WUHU21623XXSP,2013-02-23 23:47:00,
2013-02-23 15:49:00,50.2,39.6,30.36,North,0,2.5,6.3,67,0.00,,,0.31,WUHU21623XXSP,2013-02-23 23:49:00,
2013-02-23 15:51:00,50.2,39.6,30.36,South,180,0.0,6.0,67,0.00,,,0.31,WUHU21623XXSP,2013-02-23 23:51:00,
2013-02-23 15:52:00,50.2,39.6,30.36,WSW,247,2.5,5.6,67,0.00,,,0.31,WUHU21623XXSP,2013-02-23 23:52:00,
2013-02-23 15:54:00,49.8,39.3,30.37,NNW,337,0.7,4.3,67,0.00,,,0.31,WUHU21623XXSP,2013-02-23 23:54:00,
2013-02-23 15:55:00,50.0,39.5,30.37,North,0,0.0,4.3,67,0.00,,,0.31,WUHU21623XXSP,2013-02-23 23:55:00,
2013-02-23 15:56:00,50.2,39.7,30.36,West,270,0.0,4.3,68,0.00,,,0.31,WUHU21623XXSP,2013-02-23 23:56:00,
2013-02-23 15:57:00,49.8,39.7,30.36,WNW,292,0.7,4.3,68,0.00,,,0.31,WUHU21623XXSP,2013-02-23 23:57:00,
2013-02-23 16:00:00,50.0,39.8,30.36,NNW,337,0.0,5.6,68,0.00,,,0.31,WUHU21623XXSP,2013-02-24 00:00:00,
2013-02-23 16:01:00,49.8,39.7,30.36,WSW,247,0.0,8.3,68,0.00,,,0.31,WUHU21623XXSP,2013-02-24 00:01:00,
2013-02-23 16:02:00,49.8,39.7,30.36,WNW,292,5.1,8.3,68,0.00,,,0.31,WUHU21623XXSP,2013-02-24 00:02:00,
2013-02-23 16:05:00,49.8,39.7,30.36,NW,315,3.1,8.3,68,0.00,,,0.31,WUHU21623XXSP,2013-02-24 00:05:00,
2013-02-23 16:06:00,49.8,39.7,30.36,NNW,337,0.0,8.3,68,0.00,,,0.31,WUHU21623XXSP,2013-02-24 00:06:00,
2013-02-23 16:07:00,49.8,39.7,30.36,WSW,247,0.0,8.3,68,0.00,,,0.31,WUHU21623XXSP,2013-02-24 00:07:00,
2013-02-23 16:10:00,49.8,39.7,30.36,WNW,292,0.0,6.3,68,0.00,,,0.31,WUHU21623XXSP,2013-02-24 00:10:00,
2013-02-23 16:11:00,49.6,39.5,30.37,WNW,292,0.0,6.3,68,0.00,,,0.31,WUHU21623XXSP,2013-02-24 00:11:00,
2013-02-23 16:12:00,49.6,39.5,30.37,West,270,6.7,6.7,68,0.00,,,0.31,WUHU21623XXSP,2013-02-24 00:12:00,
2013-02-23 16:15:00,49.6,39.5,30.37,NW,315,4.3,6.7,68,0.00,,,0.31,WUHU21623XXSP,2013-02-24 00:15:00,
2013-02-23 16:16:00,49.6,39.1,30.37,West,270,3.4,6.7,67,0.00,,,0.31,WUHU21623XXSP,2013-02-24 00:16:00,
2013-02-23 16:17:00,49.6,39.1,30.37,SSW,202,6.5,7.8,67,0.00,,,0.31,WUHU21623XXSP,2013-02-24 00:17:00,
2013-02-23 16:20:00,49.6,39.1,30.37,NNW,337,0.0,9.8,67,0.00,,,0.31,WUHU21623XXSP,2013-02-24 00:20:00,
2013-02-23 16:21:00,49.6,39.1,30.37,WSW,247,1.1,9.8,67,0.00,,,0.31,WUHU21623XXSP,2013-02-24 00:21:00,
2013-02-23 16:22:00,49.5,38.9,30.37,NW,315,1.8,9.8,67,0.00,,,0.31,WUHU21623XXSP,2013-02-24 00:22:00,
2013-02-23 16:26:00,49.3,39.1,30.37,North,0,0.0,9.8,68,0.00,,,0.31,WUHU21623XXSP,2013-02-24 00:26:00,
2013-02-23 16:27:00,49.3,39.1,30.37,North,0,0.0,9.8,68,0.00,,,0.31,WUHU21623XXSP,2013-02-24 00:27:00,
2013-02-23 16:31:00,49.3,39.1,30.37,NW,315,5.6,5.6,68,0.00,,,0.31,WUHU21623XXSP,2013-02-24 00:31:00,
2013-02-23 16:32:00,49.1,38.6,30.37,West,270,6.7,6.7,67,0.00,,,0.31,WUHU21623XXSP,2013-02-24 00:32:00,
2013-02-23 16:36:00,49.1,38.6,30.37,NW,315,5.8,8.5,67,0.00,,,0.31,WUHU21623XXSP,2013-02-24 00:36:00,
2013-02-23 16:37:00,49.1,38.6,30.37,NNW,337,2.0,8.5,67,0.00,,,0.31,WUHU21623XXSP,2013-02-24 00:37:00,
2013-02-23 16:41:00,48.9,38.4,30.37,NW,315,5.6,8.5,67,0.00,,,0.31,WUHU21623XXSP,2013-02-24 00:41:00,
2013-02-23 16:42:00,48.9,38.4,30.37,NW,315,4.9,8.5,67,0.00,,,0.31,WUHU21623XXSP,2013-02-24 00:42:00,
2013-02-23 16:43:00,48.9,38.4,30.36,West,270,3.4,8.5,67,0.00,,,0.31,WUHU21623XXSP,2013-02-24 00:43:00,
2013-02-23 16:46:00,48.9,38.4,30.37,East,90,3.1,6.9,67,0.00,,,0.31,WUHU21623XXSP,2013-02-24 00:46:00,
2013-02-23 16:47:00,48.9,38.8,30.37,NE,45,1.3,6.9,68,0.00,,,0.31,WUHU21623XXSP,2013-02-24 00:47:00,
2013-02-23 16:48:00,48.9,38.8,30.37,NW,315,0.0,6.9,68,0.00,,,0.31,WUHU21623XXSP,2013-02-24 00:48:00,
2013-02-23 16:51:00,48.7,38.6,30.37,NE,45,2.7,6.9,68,0.00,,,0.31,WUHU21623XXSP,2013-02-24 00:51:00,
2013-02-23 16:52:00,48.7,38.6,30.37,NE,45,0.0,4.9,68,0.00,,,0.31,WUHU21623XXSP,2013-02-24 00:52:00,
2013-02-23 16:53:00,48.7,38.6,30.37,NE,45,0.0,4.9,68,0.00,,,0.31,WUHU21623XXSP,2013-02-24 00:53:00,
2013-02-23 16:56:00,48.6,38.8,30.37,NNE,22,0.0,3.6,69,0.00,,,0.31,WUHU21623XXSP,2013-02-24 00:56:00,
2013-02-23 16:57:00,48.6,38.8,30.37,NE,45,0.0,3.6,69,0.00,,,0.31,WUHU21623XXSP,2013-02-24 00:57:00,
2013-02-23 16:58:00,48.6,38.8,30.37,NE,45,1.6,3.6,69,0.00,,,0.31,WUHU21623XXSP,2013-02-24 00:58:00,
2013-02-23 17:01:00,48.2,38.5,30.37,NNW,337,0.0,2.2,69,0.00,,,0.31,WUHU21623XXSP,2013-02-24 01:01:00,
2013-02-23 17:02:00,48.2,38.5,30.37,North,0,0.0,2.2,69,0.00,,,0.31,WUHU21623XXSP,2013-02-24 01:02:00,
2013-02-23 17:03:00,48.0,38.3,30.37,North,0,0.0,2.2,69,0.00,,,0.31,WUHU21623XXSP,2013-02-24 01:03:00,
2013-02-23 17:06:00,48.0,38.7,30.37,SW,225,0.0,2.7,70,0.00,,,0.31,WUHU21623XXSP,2013-02-24 01:06:00,
2013-02-23 17:08:00,47.8,38.5,30.37,SW,225,0.0,2.7,70,0.00,,,0.31,WUHU21623XXSP,2013-02-24 01:08:00,
2013-02-23 17:11:00,47.7,38.4,30.37,SW,225,0.0,2.7,70,0.00,,,0.31,WUHU21623XXSP,2013-02-24 01:11:00,
2013-02-23 17:12:00,47.5,38.2,30.37,SW,225,0.0,2.7,70,0.00,,,0.31,WUHU21623XXSP,2013-02-24 01:12:00,
2013-02-23 17:13:00,47.5,38.2,30.37,SW,225,0.0,2.7,70,0.00,,,0.31,WUHU21623XXSP,2013-02-24 01:13:00,
2013-02-23 17:16:00,47.3,38.0,30.37,SW,225,0.0,0.0,70,0.00,,,0.31,WUHU21623XXSP,2013-02-24 01:16:00,
2013-02-23 17:17:00,47.3,38.0,30.37,SW,225,0.0,0.0,70,0.00,,,0.31,WUHU21623XXSP,2013-02-24 01:17:00,
2013-02-23 17:18:00,47.3,38.0,30.37,SW,225,0.0,0.0,70,0.00,,,0.31,WUHU21623XXSP,2013-02-24 01:18:00,
2013-02-23 17:19:00,47.3,38.0,30.37,SW,225,0.0,0.0,70,0.00,,,0.31,WUHU21623XXSP,2013-02-24 01:19:00,
2013-02-23 17:22:00,47.1,38.2,30.37,SW,225,0.0,0.0,71,0.00,,,0.31,WUHU21623XXSP,2013-02-24 01:22:00,
2013-02-23 17:23:00,47.1,38.2,30.37,SW,225,0.0,0.0,71,0.00,,,0.31,WUHU21623XXSP,2013-02-24 01:23:00,
2013-02-23 17:24:00,46.9,38.0,30.37,SW,225,0.0,0.0,71,0.00,,,0.31,WUHU21623XXSP,2013-02-24 01:24:00,
2013-02-23 17:27:00,46.8,38.2,30.37,NW,315,0.0,0.0,72,0.00,,,0.31,WUHU21623XXSP,2013-02-24 01:27:00,
2013-02-23 17:28:00,46.8,38.2,30.37,NW,315,0.0,0.0,72,0.00,,,0.31,WUHU21623XXSP,2013-02-24 01:28:00,
2013-02-23 17:29:00,46.6,38.1,30.37,NW,315,0.0,0.0,72,0.00,,,0.31,WUHU21623XXSP,2013-02-24 01:29:00,
2013-02-23 17:32:00,46.6,38.1,30.37,NW,315,0.0,0.0,72,0.00,,,0.31,WUHU21623XXSP,2013-02-24 01:32:00,
2013-02-23 17:33:00,46.6,38.1,30.37,NW,315,0.0,0.0,72,0.00,,,0.31,WUHU21623XXSP,2013-02-24 01:33:00,
2013-02-23 17:35:00,46.4,37.9,30.37,NW,315,0.0,0.0,72,0.00,,,0.31,WUHU21623XXSP,2013-02-24 01:35:00,
2013-02-23 17:37:00,46.2,37.7,30.38,NNE,22,0.0,0.0,72,0.00,,,0.31,WUHU21623XXSP,2013-02-24 01:37:00,
2013-02-23 17:39:00,46.2,37.7,30.38,NNE,22,0.0,0.0,72,0.00,,,0.31,WUHU21623XXSP,2013-02-24 01:39:00,
2013-02-23 17:40:00,46.2,37.7,30.38,NNE,22,0.0,0.0,72,0.00,,,0.31,WUHU21623XXSP,2013-02-24 01:40:00,
2013-02-23 17:42:00,46.0,37.5,30.38,NNE,22,0.0,0.0,72,0.00,,,0.31,WUHU21623XXSP,2013-02-24 01:42:00,
2013-02-23 17:44:00,46.0,37.5,30.38,NNE,22,0.0,0.0,72,0.00,,,0.31,WUHU21623XXSP,2013-02-24 01:44:00,
2013-02-23 17:45:00,46.0,37.5,30.38,NNE,22,0.0,0.0,72,0.00,,,0.31,WUHU21623XXSP,2013-02-24 01:45:00,
2013-02-23 17:47:00,45.7,37.5,30.38,NNE,22,0.0,0.0,73,0.00,,,0.31,WUHU21623XXSP,2013-02-24 01:47:00,
2013-02-23 17:49:00,45.7,37.5,30.38,NNE,22,0.0,0.0,73,0.00,,,0.31,WUHU21623XXSP,2013-02-24 01:49:00,
2013-02-23 17:50:00,45.7,37.5,30.38,NNE,22,0.0,0.0,73,0.00,,,0.31,WUHU21623XXSP,2013-02-24 01:50:00,
2013-02-23 17:52:00,45.5,37.3,30.38,NNE,22,0.0,0.0,73,0.00,,,0.31,WUHU21623XXSP,2013-02-24 01:52:00,
2013-02-23 17:53:00,45.3,37.2,30.38,NNE,22,0.0,0.0,73,0.00,,,0.31,WUHU21623XXSP,2013-02-24 01:53:00,
2013-02-23 17:54:00,45.3,37.2,30.38,NNE,22,0.0,0.0,73,0.00,,,0.31,WUHU21623XXSP,2013-02-24 01:54:00,
2013-02-23 17:55:00,45.3,37.2,30.38,NNE,22,0.0,0.0,73,0.00,,,0.31,WUHU21623XXSP,2013-02-24 01:55:00,
2013-02-23 17:58:00,45.1,37.0,30.38,NNE,22,0.0,0.0,73,0.00,,,0.31,WUHU21623XXSP,2013-02-24 01:58:00,
2013-02-23 17:59:00,45.0,37.1,30.38,NNE,22,0.0,0.0,74,0.00,,,0.31,WUHU21623XXSP,2013-02-24 01:59:00,
2013-02-23 18:00:00,45.0,37.1,30.38,NNE,22,0.0,0.0,74,0.00,,,0.31,WUHU21623XXSP,2013-02-24 02:00:00,
2013-02-23 18:03:00,44.8,37.0,30.38,NNE,22,0.0,0.0,74,0.00,,,0.31,WUHU21623XXSP,2013-02-24 02:03:00,
2013-02-23 18:04:00,44.8,37.0,30.38,NNE,22,0.0,0.0,74,0.00,,,0.31,WUHU21623XXSP,2013-02-24 02:04:00,
2013-02-23 18:05:00,44.6,36.8,30.38,NNE,22,0.0,0.0,74,0.00,,,0.31,WUHU21623XXSP,2013-02-24 02:05:00,
2013-02-23 18:08:00,44.4,37.0,30.38,NNE,22,0.0,0.0,75,0.00,,,0.31,WUHU21623XXSP,2013-02-24 02:08:00,
2013-02-23 18:09:00,44.4,37.0,30.38,NNE,22,0.0,0.0,75,0.00,,,0.31,WUHU21623XXSP,2013-02-24 02:09:00,
2013-02-23 18:10:00,44.4,37.0,30.38,NNE,22,0.0,0.0,75,0.00,,,0.31,WUHU21623XXSP,2013-02-24 02:10:00,
2013-02-23 18:13:00,44.2,36.8,30.39,NNE,22,0.0,0.0,75,0.00,,,0.31,WUHU21623XXSP,2013-02-24 02:13:00,
2013-02-23 18:14:00,44.1,36.6,30.39,NNE,22,0.0,0.0,75,0.00,,,0.31,WUHU21623XXSP,2013-02-24 02:14:00,
2013-02-23 18:15:00,43.9,36.4,30.39,NNE,22,0.0,0.0,75,0.00,,,0.31,WUHU21623XXSP,2013-02-24 02:15:00,
2013-02-23 18:18:00,43.9,36.8,30.39,NNE,22,0.0,0.0,76,0.00,,,0.31,WUHU21623XXSP,2013-02-24 02:18:00,
2013-02-23 18:19:00,43.9,36.8,30.39,NNE,22,0.0,0.0,76,0.00,,,0.31,WUHU21623XXSP,2013-02-24 02:19:00,
2013-02-23 18:21:00,43.7,36.6,30.39,ESE,112,0.0,0.0,76,0.00,,,0.31,WUHU21623XXSP,2013-02-24 02:21:00,
2013-02-23 18:23:00,43.5,36.4,30.39,ESE,112,0.0,0.0,76,0.00,,,0.31,WUHU21623XXSP,2013-02-24 02:23:00,
2013-02-23 18:24:00,43.5,36.4,30.39,ESE,112,0.0,0.0,76,0.00,,,0.31,WUHU21623XXSP,2013-02-24 02:24:00,
2013-02-23 18:26:00,43.5,36.4,30.39,ESE,112,0.0,0.0,76,0.00,,,0.31,WUHU21623XXSP,2013-02-24 02:26:00,
2013-02-23 18:28:00,43.3,36.6,30.39,ESE,112,0.0,0.0,77,0.00,,,0.31,WUHU21623XXSP,2013-02-24 02:28:00,
2013-02-23 18:29:00,43.3,36.6,30.39,ESE,112,0.0,0.0,77,0.00,,,0.31,WUHU21623XXSP,2013-02-24 02:29:00,
2013-02-23 18:31:00,43.2,36.4,30.39,ESE,112,0.0,0.0,77,0.00,,,0.31,WUHU21623XXSP,2013-02-24 02:31:00,
2013-02-23 18:34:00,43.2,36.4,30.39,ESE,112,0.0,0.0,77,0.00,,,0.31,WUHU21623XXSP,2013-02-24 02:34:00,
2013-02-23 18:36:00,43.0,36.2,30.39,ESE,112,0.0,0.0,77,0.00,,,0.31,WUHU21623XXSP,2013-02-24 02:36:00,
2013-02-23 18:39:00,43.0,36.6,30.39,ESE,112,0.0,0.0,78,0.00,,,0.31,WUHU21623XXSP,2013-02-24 02:39:00,
2013-02-23 18:40:00,42.6,36.2,30.39,ESE,112,0.0,0.0,78,0.00,,,0.31,WUHU21623XXSP,2013-02-24 02:40:00,
2013-02-23 18:41:00,42.6,36.2,30.39,ESE,112,0.0,0.0,78,0.00,,,0.31,WUHU21623XXSP,2013-02-24 02:41:00,
2013-02-23 18:44:00,42.6,36.2,30.39,ESE,112,0.0,0.0,78,0.00,,,0.31,WUHU21623XXSP,2013-02-24 02:44:00,
2013-02-23 18:45:00,42.6,36.2,30.39,ESE,112,0.0,0.0,78,0.00,,,0.31,WUHU21623XXSP,2013-02-24 02:45:00,
2013-02-23 18:46:00,42.6,36.2,30.39,ESE,112,0.0,0.0,78,0.00,,,0.31,WUHU21623XXSP,2013-02-24 02:46:00,
2013-02-23 18:49:00,42.4,36.0,30.40,ESE,112,0.0,0.0,78,0.00,,,0.31,WUHU21623XXSP,2013-02-24 02:49:00,
2013-02-23 18:50:00,42.4,36.0,30.40,ESE,112,0.0,0.0,78,0.00,,,0.31,WUHU21623XXSP,2013-02-24 02:50:00,
2013-02-23 18:51:00,42.3,35.9,30.40,ESE,112,0.0,0.0,78,0.00,,,0.31,WUHU21623XXSP,2013-02-24 02:51:00,
2013-02-23 18:54:00,42.1,35.7,30.40,ESE,112,0.0,0.0,78,0.00,,,0.31,WUHU21623XXSP,2013-02-24 02:54:00,
2013-02-23 18:55:00,42.1,35.7,30.40,ESE,112,0.0,0.0,78,0.00,,,0.31,WUHU21623XXSP,2013-02-24 02:55:00,
2013-02-23 18:56:00,42.1,35.7,30.40,ESE,112,0.0,0.0,78,0.00,,,0.31,WUHU21623XXSP,2013-02-24 02:56:00,
2013-02-23 18:59:00,41.9,35.8,30.40,ESE,112,0.0,0.0,79,0.00,,,0.31,WUHU21623XXSP,2013-02-24 02:59:00,
2013-02-23 19:00:00,41.7,35.6,30.40,ESE,112,0.0,0.0,79,0.00,,,0.31,WUHU21623XXSP,2013-02-24 03:00:00,
2013-02-23 19:01:00,41.7,35.6,30.40,ESE,112,0.0,0.0,79,0.00,,,0.31,WUHU21623XXSP,2013-02-24 03:01:00,
2013-02-23 19:04:00,41.7,35.6,30.40,ESE,112,0.0,0.0,79,0.00,,,0.31,WUHU21623XXSP,2013-02-24 03:04:00,
2013-02-23 19:05:00,41.7,35.6,30.40,ESE,112,0.0,0.0,79,0.00,,,0.31,WUHU21623XXSP,2013-02-24 03:05:00,
2013-02-23 19:06:00,41.5,35.5,30.40,ESE,112,0.0,0.0,79,0.00,,,0.31,WUHU21623XXSP,2013-02-24 03:06:00,
2013-02-23 19:09:00,41.5,35.5,30.40,ESE,112,0.0,0.0,79,0.00,,,0.31,WUHU21623XXSP,2013-02-24 03:09:00,
2013-02-23 19:10:00,41.5,35.8,30.40,ESE,112,0.0,0.0,80,0.00,,,0.31,WUHU21623XXSP,2013-02-24 03:10:00,
2013-02-23 19:11:00,41.5,35.8,30.40,ESE,112,0.0,0.0,80,0.00,,,0.31,WUHU21623XXSP,2013-02-24 03:11:00,
2013-02-23 19:14:00,41.4,35.6,30.40,ESE,112,0.0,0.0,80,0.00,,,0.31,WUHU21623XXSP,2013-02-24 03:14:00,
2013-02-23 19:15:00,41.4,35.6,30.40,ESE,112,0.0,0.0,80,0.00,,,0.31,WUHU21623XXSP,2013-02-24 03:15:00,
2013-02-23 19:16:00,41.4,35.6,30.40,ESE,112,0.0,0.0,80,0.00,,,0.31,WUHU21623XXSP,2013-02-24 03:16:00,
2013-02-23 19:17:00,41.4,35.6,30.40,ESE,112,0.0,0.0,80,0.00,,,0.31,WUHU21623XXSP,2013-02-24 03:17:00,
2013-02-23 19:19:00,41.4,35.6,30.39,ESE,112,0.0,0.0,80,0.00,,,0.31,WUHU21623XXSP,2013-02-24 03:19:00,
2013-02-23 19:20:00,41.4,35.6,30.40,ESE,112,0.0,0.0,80,0.00,,,0.31,WUHU21623XXSP,2013-02-24 03:20:00,
2013-02-23 19:21:00,41.2,35.4,30.40,ESE,112,0.0,0.0,80,0.00,,,0.31,WUHU21623XXSP,2013-02-24 03:21:00,
2013-02-23 19:22:00,41.2,35.4,30.40,ESE,112,0.0,0.0,80,0.00,,,0.31,WUHU21623XXSP,2013-02-24 03:22:00,
2013-02-23 19:24:00,41.2,35.4,30.40,ESE,112,0.0,0.0,80,0.00,,,0.31,WUHU21623XXSP,2013-02-24 03:24:00,
2013-02-23 19:25:00,41.2,35.4,30.39,ESE,112,0.0,0.0,80,0.00,,,0.31,WUHU21623XXSP,2013-02-24 03:25:00,
2013-02-23 19:26:00,41.2,35.7,30.40,ESE,112,0.0,0.0,81,0.00,,,0.31,WUHU21623XXSP,2013-02-24 03:26:00,
2013-02-23 19:27:00,41.2,35.7,30.40,ESE,112,0.0,0.0,81,0.00,,,0.31,WUHU21623XXSP,2013-02-24 03:27:00,
2013-02-23 19:30:00,41.2,35.7,30.39,ESE,112,0.0,0.0,81,0.00,,,0.31,WUHU21623XXSP,2013-02-24 03:30:00,
2013-02-23 19:31:00,41.2,35.7,30.40,ESE,112,0.0,0.0,81,0.00,,,0.31,WUHU21623XXSP,2013-02-24 03:31:00,
2013-02-23 19:32:00,41.2,35.7,30.39,ESE,112,0.0,0.0,81,0.00,,,0.31,WUHU21623XXSP,2013-02-24 03:32:00,
2013-02-23 19:35:00,41.2,35.7,30.39,ESE,112,0.0,0.0,81,0.00,,,0.31,WUHU21623XXSP,2013-02-24 03:35:00,
2013-02-23 19:36:00,41.2,35.7,30.39,ESE,112,0.0,0.0,81,0.00,,,0.31,WUHU21623XXSP,2013-02-24 03:36:00,
2013-02-23 19:37:00,41.2,35.7,30.39,ESE,112,0.0,0.0,81,0.00,,,0.31,WUHU21623XXSP,2013-02-24 03:37:00,
2013-02-23 19:40:00,41.0,35.9,30.39,ESE,112,0.0,0.0,82,0.00,,,0.31,WUHU21623XXSP,2013-02-24 03:40:00,
2013-02-23 19:41:00,41.2,36.0,30.39,ESE,112,0.0,0.0,82,0.00,,,0.31,WUHU21623XXSP,2013-02-24 03:41:00,
2013-02-23 19:42:00,41.0,35.9,30.39,ESE,112,0.0,0.0,82,0.00,,,0.31,WUHU21623XXSP,2013-02-24 03:42:00,
2013-02-23 19:45:00,41.0,35.9,30.40,ESE,112,0.0,0.0,82,0.00,,,0.31,WUHU21623XXSP,2013-02-24 03:45:00,
2013-02-23 19:46:00,41.0,35.9,30.40,ESE,112,0.0,0.0,82,0.00,,,0.31,WUHU21623XXSP,2013-02-24 03:46:00,
2013-02-23 19:47:00,41.0,35.9,30.40,ESE,112,0.0,0.0,82,0.00,,,0.31,WUHU21623XXSP,2013-02-24 03:47:00,
2013-02-23 19:50:00,41.0,35.9,30.40,ESE,112,0.0,0.0,82,0.00,,,0.31,WUHU21623XXSP,2013-02-24 03:50:00,
2013-02-23 19:51:00,41.0,35.9,30.39,ESE,112,0.0,0.0,82,0.00,,,0.31,WUHU21623XXSP,2013-02-24 03:51:00,
2013-02-23 19:52:00,41.0,35.9,30.40,ESE,112,0.0,0.0,82,0.00,,,0.31,WUHU21623XXSP,2013-02-24 03:52:00,
2013-02-23 19:55:00,41.0,35.9,30.39,ESE,112,0.0,0.0,82,0.00,,,0.31,WUHU21623XXSP,2013-02-24 03:55:00,
2013-02-23 19:56:00,41.0,35.9,30.39,ESE,112,0.0,0.0,82,0.00,,,0.31,WUHU21623XXSP,2013-02-24 03:56:00,
2013-02-23 19:57:00,41.0,35.9,30.39,ESE,112,0.0,0.0,82,0.00,,,0.31,WUHU21623XXSP,2013-02-24 03:57:00,
2013-02-23 20:00:00,41.0,35.9,30.39,ESE,112,0.0,0.0,82,0.00,,,0.31,WUHU21623XXSP,2013-02-24 04:00:00,
2013-02-23 20:01:00,40.8,35.7,30.39,ESE,112,0.0,0.0,82,0.00,,,0.31,WUHU21623XXSP,2013-02-24 04:01:00,
2013-02-23 20:02:00,40.8,35.7,30.39,ESE,112,0.0,0.0,82,0.00,,,0.31,WUHU21623XXSP,2013-02-24 04:02:00,
2013-02-23 20:05:00,40.8,36.0,30.39,ESE,112,0.0,0.0,83,0.00,,,0.31,WUHU21623XXSP,2013-02-24 04:05:00,
2013-02-23 20:06:00,40.8,36.0,30.39,ESE,112,0.0,0.0,83,0.00,,,0.31,WUHU21623XXSP,2013-02-24 04:06:00,
2013-02-23 20:07:00,40.8,36.0,30.39,ESE,112,0.0,0.0,83,0.00,,,0.31,WUHU21623XXSP,2013-02-24 04:07:00,
2013-02-23 20:10:00,40.8,36.0,30.39,ESE,112,0.0,0.0,83,0.00,,,0.31,WUHU21623XXSP,2013-02-24 04:10:00,
2013-02-23 20:11:00,40.8,36.0,30.39,ESE,112,0.0,0.0,83,0.00,,,0.31,WUHU21623XXSP,2013-02-24 04:11:00,
2013-02-23 20:12:00,40.8,36.0,30.39,SE,135,0.0,0.0,83,0.00,,,0.31,WUHU21623XXSP,2013-02-24 04:12:00,
2013-02-23 20:13:00,40.8,36.0,30.39,SE,135,0.0,0.0,83,0.00,,,0.31,WUHU21623XXSP,2013-02-24 04:13:00,
2013-02-23 20:15:00,40.8,36.0,30.39,SE,135,0.0,0.0,83,0.00,,,0.31,WUHU21623XXSP,2013-02-24 04:15:00,
2013-02-23 20:16:00,40.8,36.0,30.39,SE,135,0.0,0.0,83,0.00,,,0.31,WUHU21623XXSP,2013-02-24 04:16:00,
2013-02-23 20:17:00,40.8,36.0,30.39,SE,135,0.0,0.0,83,0.00,,,0.31,WUHU21623XXSP,2013-02-24 04:17:00,
2013-02-23 20:18:00,40.8,36.0,30.39,SE,135,0.0,0.0,83,0.00,,,0.31,WUHU21623XXSP,2013-02-24 04:18:00,
2013-02-23 20:20:00,40.8,36.0,30.39,SE,135,0.0,0.0,83,0.00,,,0.31,WUHU21623XXSP,2013-02-24 04:20:00,
2013-02-23 20:21:00,40.8,36.0,30.39,South,180,1.1,1.1,83,0.00,,,0.31,WUHU21623XXSP,2013-02-24 04:21:00,
2013-02-23 20:22:00,40.8,36.0,30.40,SSE,157,0.0,1.1,83,0.00,,,0.31,WUHU21623XXSP,2013-02-24 04:22:00,
2013-02-23 20:23:00,40.6,35.8,30.40,SSE,157,0.0,1.1,83,0.00,,,0.31,WUHU21623XXSP,2013-02-24 04:23:00,
2013-02-23 20:25:00,40.6,35.8,30.40,SSE,157,0.0,1.1,83,0.00,,,0.31,WUHU21623XXSP,2013-02-24 04:25:00,
2013-02-23 20:26:00,40.6,35.8,30.39,SSE,157,0.0,1.1,83,0.00,,,0.31,WUHU21623XXSP,2013-02-24 04:26:00,
2013-02-23 20:27:00,40.6,35.8,30.39,SE,135,0.0,1.1,83,0.00,,,0.31,WUHU21623XXSP,2013-02-24 04:27:00,
2013-02-23 20:28:00,40.6,35.8,30.40,SE,135,0.0,1.1,83,0.00,,,0.31,WUHU21623XXSP,2013-02-24 04:28:00,
2013-02-23 20:30:00,40.6,35.8,30.39,SE,135,0.0,1.1,83,0.00,,,0.31,WUHU21623XXSP,2013-02-24 04:30:00,
2013-02-23 20:32:00,40.6,35.8,30.39,SE,135,0.0,0.0,83,0.00,,,0.31,WUHU21623XXSP,2013-02-24 04:32:00,
2013-02-23 20:33:00,40.6,35.8,30.40,SE,135,0.0,0.0,83,0.00,,,0.31,WUHU21623XXSP,2013-02-24 04:33:00,
2013-02-23 20:35:00,40.6,35.8,30.40,SE,135,0.0,0.0,83,0.00,,,0.31,WUHU21623XXSP,2013-02-24 04:35:00,
2013-02-23 20:37:00,40.6,35.8,30.40,SE,135,0.0,0.0,83,0.00,,,0.31,WUHU21623XXSP,2013-02-24 04:37:00,
2013-02-23 20:38:00,40.6,35.8,30.40,SE,135,0.0,0.0,83,0.00,,,0.31,WUHU21623XXSP,2013-02-24 04:38:00,
2013-02-23 20:41:00,40.5,35.9,30.40,SE,135,0.0,0.0,84,0.00,,,0.31,WUHU21623XXSP,2013-02-24 04:41:00,
2013-02-23 20:42:00,40.6,36.1,30.40,SE,135,0.0,0.0,84,0.00,,,0.31,WUHU21623XXSP,2013-02-24 04:42:00,
2013-02-23 20:43:00,40.5,35.9,30.40,SE,135,0.0,0.0,84,0.00,,,0.31,WUHU21623XXSP,2013-02-24 04:43:00,
2013-02-23 20:46:00,40.5,35.9,30.40,SE,135,0.0,0.0,84,0.00,,,0.31,WUHU21623XXSP,2013-02-24 04:46:00,
2013-02-23 20:47:00,40.5,35.9,30.40,SE,135,0.0,0.0,84,0.00,,,0.31,WUHU21623XXSP,2013-02-24 04:47:00,
2013-02-23 20:48:00,40.5,35.9,30.40,SE,135,0.0,0.0,84,0.00,,,0.31,WUHU21623XXSP,2013-02-24 04:48:00,
2013-02-23 20:51:00,40.3,35.8,30.40,SE,135,0.0,0.0,84,0.00,,,0.31,WUHU21623XXSP,2013-02-24 04:51:00,
2013-02-23 20:52:00,40.3,35.8,30.40,SE,135,0.0,0.0,84,0.00,,,0.31,WUHU21623XXSP,2013-02-24 04:52:00,
2013-02-23 20:53:00,40.3,35.8,30.40,SE,135,0.0,0.0,84,0.00,,,0.31,WUHU21623XXSP,2013-02-24 04:53:00,
2013-02-23 20:56:00,40.3,35.8,30.40,SE,135,0.0,0.0,84,0.00,,,0.31,WUHU21623XXSP,2013-02-24 04:56:00,
2013-02-23 20:57:00,40.3,35.8,30.40,SE,135,0.0,0.0,84,0.00,,,0.31,WUHU21623XXSP,2013-02-24 04:57:00,
2013-02-23 20:58:00,40.3,35.8,30.40,SE,135,0.0,0.0,84,0.00,,,0.31,WUHU21623XXSP,2013-02-24 04:58:00,
2013-02-23 21:00:00,40.3,35.8,30.40,SE,135,0.0,0.0,84,0.00,,,0.31,WUHU21623XXSP,2013-02-24 05:00:00,
2013-02-23 21:05:00,40.1,35.6,30.40,ESE,112,0.0,0.0,84,0.00,,,0.31,WUHU21623XXSP,2013-02-24 05:05:00,
2013-02-23 21:10:00,39.9,35.4,30.41,ESE,112,0.0,0.0,84,0.00,,,0.31,WUHU21623XXSP,2013-02-24 05:10:00,
2013-02-23 21:15:00,39.9,35.4,30.41,ESE,112,0.0,0.0,84,0.00,,,0.31,WUHU21623XXSP,2013-02-24 05:15:00,
2013-02-23 21:16:00,39.9,35.4,30.41,ESE,112,0.0,0.0,84,0.00,,,0.31,WUHU21623XXSP,2013-02-24 05:16:00,
2013-02-23 21:20:00,39.7,35.3,30.41,ESE,112,0.0,0.0,84,0.00,,,0.31,WUHU21623XXSP,2013-02-24 05:20:00,
2013-02-23 21:21:00,39.7,35.3,30.41,ESE,112,0.0,0.0,84,0.00,,,0.31,WUHU21623XXSP,2013-02-24 05:21:00,
2013-02-23 21:25:00,39.7,35.3,30.41,ESE,112,0.0,0.0,84,0.00,,,0.31,WUHU21623XXSP,2013-02-24 05:25:00,
2013-02-23 21:26:00,39.6,35.1,30.41,ESE,112,0.0,0.0,84,0.00,,,0.31,WUHU21623XXSP,2013-02-24 05:26:00,
2013-02-23 21:30:00,39.6,35.1,30.41,ESE,112,0.0,0.0,84,0.00,,,0.31,WUHU21623XXSP,2013-02-24 05:30:00,
2013-02-23 21:31:00,39.6,35.1,30.41,ESE,112,0.0,0.0,84,0.00,,,0.31,WUHU21623XXSP,2013-02-24 05:31:00,
2013-02-23 21:35:00,39.6,35.4,30.40,ESE,112,0.0,0.0,85,0.00,,,0.31,WUHU21623XXSP,2013-02-24 05:35:00,
2013-02-23 21:36:00,39.4,35.2,30.40,ESE,112,0.0,0.0,85,0.00,,,0.31,WUHU21623XXSP,2013-02-24 05:36:00,
2013-02-23 21:37:00,39.4,35.2,30.40,ESE,112,0.0,0.0,85,0.00,,,0.31,WUHU21623XXSP,2013-02-24 05:37:00,
2013-02-23 21:40:00,39.4,35.2,30.40,East,90,0.0,0.0,85,0.00,,,0.31,WUHU21623XXSP,2013-02-24 05:40:00,
2013-02-23 21:41:00,39.4,35.2,30.40,East,90,0.0,0.0,85,0.00,,,0.31,WUHU21623XXSP,2013-02-24 05:41:00,
2013-02-23 21:42:00,39.4,35.2,30.40,East,90,0.0,0.0,85,0.00,,,0.31,WUHU21623XXSP,2013-02-24 05:42:00,
2013-02-23 21:46:00,39.4,35.2,30.40,SE,135,0.0,0.0,85,0.00,,,0.31,WUHU21623XXSP,2013-02-24 05:46:00,
2013-02-23 21:47:00,39.4,35.2,30.41,SE,135,0.0,0.0,85,0.00,,,0.31,WUHU21623XXSP,2013-02-24 05:47:00,
2013-02-23 21:51:00,39.4,35.2,30.41,ESE,112,0.0,0.0,85,0.00,,,0.31,WUHU21623XXSP,2013-02-24 05:51:00,
2013-02-23 21:52:00,39.4,35.2,30.41,SE,135,0.0,0.0,85,0.00,,,0.31,WUHU21623XXSP,2013-02-24 05:52:00,
2013-02-23 21:56:00,39.4,35.2,30.40,SE,135,0.0,0.0,85,0.00,,,0.31,WUHU21623XXSP,2013-02-24 05:56:00,
2013-02-23 21:57:00,39.0,34.9,30.40,SE,135,0.0,0.0,85,0.00,,,0.31,WUHU21623XXSP,2013-02-24 05:57:00,
2013-02-23 21:58:00,39.2,35.1,30.40,SE,135,0.0,0.0,85,0.00,,,0.31,WUHU21623XXSP,2013-02-24 05:58:00,
2013-02-23 22:01:00,39.0,34.9,30.40,SE,135,0.0,0.0,85,0.00,,,0.31,WUHU21623XXSP,2013-02-24 06:01:00,
2013-02-23 22:02:00,39.0,34.9,30.41,SE,135,0.0,0.0,85,0.00,,,0.31,WUHU21623XXSP,2013-02-24 06:02:00,
2013-02-23 22:03:00,39.0,34.9,30.41,SE,135,0.0,0.0,85,0.00,,,0.31,WUHU21623XXSP,2013-02-24 06:03:00,
2013-02-23 22:06:00,39.0,34.9,30.40,SE,135,0.0,0.0,85,0.00,,,0.31,WUHU21623XXSP,2013-02-24 06:06:00,
2013-02-23 22:07:00,39.0,34.9,30.40,SE,135,0.0,0.0,85,0.00,,,0.31,WUHU21623XXSP,2013-02-24 06:07:00,
2013-02-23 22:08:00,39.0,34.9,30.40,SE,135,0.0,0.0,85,0.00,,,0.31,WUHU21623XXSP,2013-02-24 06:08:00,
2013-02-23 22:11:00,39.0,34.9,30.40,SE,135,0.0,0.0,85,0.00,,,0.31,WUHU21623XXSP,2013-02-24 06:11:00,
2013-02-23 22:12:00,39.0,34.9,30.40,SE,135,0.0,0.0,85,0.00,,,0.31,WUHU21623XXSP,2013-02-24 06:12:00,
2013-02-23 22:13:00,39.0,34.9,30.41,SE,135,0.0,0.0,85,0.00,,,0.31,WUHU21623XXSP,2013-02-24 06:13:00,
2013-02-23 22:16:00,39.0,34.9,30.41,SE,135,0.0,0.0,85,0.00,,,0.31,WUHU21623XXSP,2013-02-24 06:16:00,
2013-02-23 22:17:00,39.0,34.9,30.41,SE,135,0.0,0.0,85,0.00,,,0.31,WUHU21623XXSP,2013-02-24 06:17:00,
2013-02-23 22:18:00,39.0,34.9,30.41,ESE,112,0.0,0.0,85,0.00,,,0.31,WUHU21623XXSP,2013-02-24 06:18:00,
2013-02-23 22:21:00,39.0,34.9,30.41,ESE,112,0.0,0.0,85,0.00,,,0.31,WUHU21623XXSP,2013-02-24 06:21:00,
2013-02-23 22:22:00,39.0,34.9,30.41,ESE,112,0.0,0.0,85,0.00,,,0.31,WUHU21623XXSP,2013-02-24 06:22:00,
2013-02-23 22:23:00,39.0,34.9,30.41,East,90,0.0,0.0,85,0.00,,,0.31,WUHU21623XXSP,2013-02-24 06:23:00,
2013-02-23 22:26:00,39.0,34.9,30.41,ESE,112,0.0,0.0,85,0.00,,,0.31,WUHU21623XXSP,2013-02-24 06:26:00,
2013-02-23 22:27:00,39.0,34.9,30.41,ESE,112,0.0,0.0,85,0.00,,,0.31,WUHU21623XXSP,2013-02-24 06:27:00,
2013-02-23 22:28:00,39.0,34.9,30.41,East,90,0.0,0.0,85,0.00,,,0.31,WUHU21623XXSP,2013-02-24 06:28:00,
2013-02-23 22:31:00,39.0,35.2,30.40,SE,135,0.0,0.0,86,0.00,,,0.31,WUHU21623XXSP,2013-02-24 06:31:00,
2013-02-23 22:32:00,39.0,35.2,30.40,ESE,112,0.0,0.0,86,0.00,,,0.31,WUHU21623XXSP,2013-02-24 06:32:00,
2013-02-23 22:33:00,39.0,35.2,30.40,ESE,112,0.0,0.0,86,0.00,,,0.31,WUHU21623XXSP,2013-02-24 06:33:00,
2013-02-23 22:36:00,39.0,35.2,30.40,ESE,112,0.0,0.0,86,0.00,,,0.31,WUHU21623XXSP,2013-02-24 06:36:00,
2013-02-23 22:37:00,39.0,35.2,30.40,ESE,112,0.0,0.0,86,0.00,,,0.31,WUHU21623XXSP,2013-02-24 06:37:00,
2013-02-23 22:38:00,39.0,35.2,30.40,ESE,112,0.0,0.0,86,0.00,,,0.31,WUHU21623XXSP,2013-02-24 06:38:00,
2013-02-23 22:41:00,39.0,35.2,30.40,ESE,112,0.0,0.0,86,0.00,,,0.31,WUHU21623XXSP,2013-02-24 06:41:00,
2013-02-23 22:42:00,39.0,35.2,30.40,ESE,112,0.0,0.0,86,0.00,,,0.31,WUHU21623XXSP,2013-02-24 06:42:00,
2013-02-23 22:43:00,39.0,35.2,30.40,ESE,112,0.0,0.0,86,0.00,,,0.31,WUHU21623XXSP,2013-02-24 06:43:00,
2013-02-23 22:46:00,39.0,35.2,30.40,ESE,112,0.0,0.0,86,0.00,,,0.31,WUHU21623XXSP,2013-02-24 06:46:00,
2013-02-23 22:47:00,39.0,35.2,30.40,ESE,112,0.0,0.0,86,0.00,,,0.31,WUHU21623XXSP,2013-02-24 06:47:00,
2013-02-23 22:48:00,39.0,35.2,30.40,ESE,112,0.0,0.0,86,0.00,,,0.31,WUHU21623XXSP,2013-02-24 06:48:00,
2013-02-23 22:49:00,39.0,35.2,30.40,ESE,112,0.0,0.0,86,0.00,,,0.31,WUHU21623XXSP,2013-02-24 06:49:00,
2013-02-23 22:51:00,39.0,35.2,30.40,ESE,112,0.0,0.0,86,0.00,,,0.31,WUHU21623XXSP,2013-02-24 06:51:00,
2013-02-23 22:53:00,39.0,35.2,30.40,ESE,112,0.0,0.0,86,0.00,,,0.31,WUHU21623XXSP,2013-02-24 06:53:00,
2013-02-23 22:55:00,39.0,35.2,30.40,ESE,112,0.0,0.0,86,0.00,,,0.31,WUHU21623XXSP,2013-02-24 06:55:00,
2013-02-23 22:56:00,39.0,35.2,30.40,ESE,112,0.0,0.0,86,0.00,,,0.31,WUHU21623XXSP,2013-02-24 06:56:00,
2013-02-23 22:58:00,39.0,35.2,30.41,ESE,112,0.0,0.0,86,0.00,,,0.31,WUHU21623XXSP,2013-02-24 06:58:00,
2013-02-23 23:00:00,39.0,35.2,30.41,ESE,112,0.0,0.0,86,0.00,,,0.31,WUHU21623XXSP,2013-02-24 07:00:00,
2013-02-23 23:01:00,39.0,35.2,30.41,ESE,112,0.0,0.0,86,0.00,,,0.31,WUHU21623XXSP,2013-02-24 07:01:00,
2013-02-23 23:03:00,39.0,35.2,30.41,ESE,112,0.0,0.0,86,0.00,,,0.31,WUHU21623XXSP,2013-02-24 07:03:00,
2013-02-23 23:05:00,39.0,35.2,30.41,ESE,112,0.0,0.0,86,0.00,,,0.31,WUHU21623XXSP,2013-02-24 07:05:00,
2013-02-23 23:06:00,39.0,35.2,30.41,ESE,112,0.0,0.0,86,0.00,,,0.31,WUHU21623XXSP,2013-02-24 07:06:00,
2013-02-23 23:08:00,39.0,35.2,30.41,ESE,112,0.0,0.0,86,0.00,,,0.31,WUHU21623XXSP,2013-02-24 07:08:00,
2013-02-23 23:10:00,39.0,35.2,30.41,ESE,112,0.0,0.0,86,0.00,,,0.31,WUHU21623XXSP,2013-02-24 07:10:00,
2013-02-23 23:12:00,39.0,35.2,30.41,ESE,112,0.0,0.0,86,0.00,,,0.31,WUHU21623XXSP,2013-02-24 07:12:00,
2013-02-23 23:13:00,39.0,35.2,30.41,ESE,112,0.0,0.0,86,0.00,,,0.31,WUHU21623XXSP,2013-02-24 07:13:00,
2013-02-23 23:14:00,39.0,35.2,30.41,ESE,112,0.0,0.0,86,0.00,,,0.31,WUHU21623XXSP,2013-02-24 07:14:00,
2013-02-23 23:15:00,39.0,35.2,30.41,ESE,112,0.0,0.0,86,0.00,,,0.31,WUHU21623XXSP,2013-02-24 07:15:00,
2013-02-23 23:16:00,39.0,35.2,30.41,ESE,112,0.0,0.0,86,0.00,,,0.31,WUHU21623XXSP,2013-02-24 07:16:00,
2013-02-23 23:18:00,39.0,35.2,30.41,ESE,112,0.0,0.0,86,0.00,,,0.31,WUHU21623XXSP,2013-02-24 07:18:00,
2013-02-23 23:19:00,39.0,35.2,30.41,ESE,112,0.0,0.0,86,0.00,,,0.31,WUHU21623XXSP,2013-02-24 07:19:00,
2013-02-23 23:20:00,39.0,35.2,30.42,ESE,112,0.0,0.0,86,0.00,,,0.31,WUHU21623XXSP,2013-02-24 07:20:00,
2013-02-23 23:22:00,39.0,35.2,30.41,SSE,157,0.0,0.0,86,0.00,,,0.31,WUHU21623XXSP,2013-02-24 07:22:00,
2013-02-23 23:23:00,39.0,35.2,30.42,SSE,157,0.0,0.0,86,0.00,,,0.31,WUHU21623XXSP,2013-02-24 07:23:00,
2013-02-23 23:24:00,39.0,35.2,30.42,SSE,157,0.0,0.0,86,0.00,,,0.31,WUHU21623XXSP,2013-02-24 07:24:00,
2013-02-23 23:25:00,39.0,35.2,30.42,SSE,157,0.0,0.0,86,0.00,,,0.31,WUHU21623XXSP,2013-02-24 07:25:00,
2013-02-23 23:27:00,39.0,35.2,30.41,SSE,157,0.0,0.0,86,0.00,,,0.31,WUHU21623XXSP,2013-02-24 07:27:00,
2013-02-23 23:28:00,39.0,35.2,30.41,SSE,157,0.0,0.0,86,0.00,,,0.31,WUHU21623XXSP,2013-02-24 07:28:00,
2013-02-23 23:29:00,39.0,35.2,30.41,SSE,157,0.0,0.0,86,0.00,,,0.31,WUHU21623XXSP,2013-02-24 07:29:00,
2013-02-23 23:31:00,39.0,35.2,30.41,SE,135,0.0,0.0,86,0.00,,,0.31,WUHU21623XXSP,2013-02-24 07:31:00,
2013-02-23 23:32:00,39.0,35.2,30.41,ESE,112,0.0,0.0,86,0.00,,,0.31,WUHU21623XXSP,2013-02-24 07:32:00,
2013-02-23 23:33:00,39.0,35.2,30.41,ESE,112,0.0,0.0,86,0.00,,,0.31,WUHU21623XXSP,2013-02-24 07:33:00,
2013-02-23 23:34:00,39.0,35.2,30.41,ESE,112,0.0,0.0,86,0.00,,,0.31,WUHU21623XXSP,2013-02-24 07:34:00,
2013-02-23 23:36:00,39.0,35.2,30.41,ESE,112,0.0,0.0,86,0.00,,,0.31,WUHU21623XXSP,2013-02-24 07:36:00,
2013-02-23 23:37:00,39.0,35.2,30.41,SE,135,0.0,0.0,86,0.00,,,0.31,WUHU21623XXSP,2013-02-24 07:37:00,
2013-02-23 23:39:00,39.0,35.2,30.41,SE,135,0.0,0.0,86,0.00,,,0.31,WUHU21623XXSP,2013-02-24 07:39:00,
2013-02-23 23:41:00,39.0,35.2,30.41,SE,135,0.0,0.0,86,0.00,,,0.31,WUHU21623XXSP,2013-02-24 07:41:00,
2013-02-23 23:42:00,39.0,35.2,30.41,SE,135,0.0,0.0,86,0.00,,,0.31,WUHU21623XXSP,2013-02-24 07:42:00,
2013-02-23 23:44:00,39.0,35.2,30.41,SE,135,0.0,0.0,86,0.00,,,0.31,WUHU21623XXSP,2013-02-24 07:44:00,
2013-02-23 23:46:00,39.0,35.2,30.41,SE,135,0.0,0.0,86,0.00,,,0.31,WUHU21623XXSP,2013-02-24 07:46:00,
2013-02-23 23:47:00,39.0,35.5,30.41,SE,135,0.0,0.0,87,0.00,,,0.31,WUHU21623XXSP,2013-02-24 07:47:00,
2013-02-23 23:49:00,39.0,35.5,30.41,SE,135,0.0,0.0,87,0.00,,,0.31,WUHU21623XXSP,2013-02-24 07:49:00,
2013-02-23 23:51:00,39.0,35.2,30.41,SE,135,0.0,0.0,86,0.00,,,0.31,WUHU21623XXSP,2013-02-24 07:51:00,
2013-02-23 23:53:00,39.0,35.5,30.41,SE,135,0.0,0.0,87,0.00,,,0.31,WUHU21623XXSP,2013-02-24 07:53:00,
2013-02-23 23:54:00,39.0,35.5,30.41,SE,135,0.0,0.0,87,0.00,,,0.31,WUHU21623XXSP,2013-02-24 07:54:00,
2013-02-23 23:55:00,39.0,35.5,30.41,SE,135,0.0,0.0,87,0.00,,,0.31,WUHU21623XXSP,2013-02-24 07:55:00,
2013-02-23 23:56:00,39.0,35.5,30.41,SE,135,0.0,0.0,87,0.00,,,0.31,WUHU21623XXSP,2013-02-24 07:56:00,
2013-02-23 23:58:00,39.0,35.5,30.41,SE,135,0.0,0.0,87,0.00,,,0.31,WUHU21623XXSP,2013-02-24 07:58:00,
2013-02-23 23:59:00,39.0,35.5,30.41,SE,135,0.0,0.0,87,0.00,,,0.31,WUHU21623XXSP,2013-02-24 07:59:00,